GFSNW_sfc_temp_039.txt.gz
Temp
54 54 54 52 52 52 52 50 47 56 56 49 44 45 51 54 57 59 58 58 55 53 52 50 50 50 53 54 57 54 53 48 43 50 55 56 55 51 49 41 39 36 37 44
54 53 52 52 52 54 52 49 50 56 56 41 39 49 54 57 56 56 57 55 56 55 50 47 50 50 54 55 55 52 52 46 40 45 51 54 51 50 46 43 41 38 36 44
53 52 52 51 51 54 55 50 44 50 50 48 49 49 51 53 56 56 57 55 55 52 50 50 47 49 53 54 54 49 52 46 45 42 46 48 46 46 46 47 39 40 41 46
52 51 51 51 51 53 53 50 47 51 43 46 48 53 52 52 51 57 57 55 54 51 45 47 46 50 52 53 50 51 52 45 45 44 44 46 47 46 45 45 45 43 46 45
51 51 51 51 51 52 53 48 47 46 46 49 50 47 50 52 53 53 53 52 52 54 48 51 46 50 49 50 51 49 48 42 43 41 42 42 42 46 45 44 45 46 44 45
51 51 51 51 51 54 52 51 53 51 41 44 45 46 49 53 54 52 53 54 51 49 52 52 50 50 50 51 49 45 44 41 39 36 37 39 35 43 46 46 46 49 43 52
51 51 51 51 51 53 56 53 52 46 38 42 46 50 53 52 53 51 51 53 51 51 54 53 54 50 48 48 45 47 40 37 34 34 31 31 47 49 49 46 47 49 48 48
50 50 50 50 51 52 56 54 52 46 34 43 46 49 48 49 49 48 49 50 51 53 51 44 42 39 40 41 43 43 44 37 31 33 33 40 47 45 45 44 48 50 50 48
50 50 50 50 52 52 55 53 52 50 41 42 51 48 49 45 44 46 46 51 53 49 39 38 35 35 41 40 42 43 42 40 39 30 32 30 43 48 51 52 41 51 50 46
49 50 50 50 53 52 56 53 54 52 45 49 51 48 48 48 46 43 46 49 48 49 36 34 36 38 41 38 34 32 33 32 33 25 33 37 45 50 52 40 43 48 48 46
49 49 49 51 53 52 56 53 54 54 46 49 52 53 49 48 48 44 47 47 45 39 37 37 35 35 38 39 41 36 37 33 31 27 29 32 48 50 44 50 49 49 47 47
49 50 50 52 53 54 55 52 54 54 51 50 53 54 54 53 55 49 46 50 46 46 39 35 33 33 33 34 37 41 38 41 38 39 40 48 49 49 51 50 49 49 48 49
49 49 51 52 54 54 55 54 52 52 46 49 51 50 55 56 53 55 48 44 50 46 45 38 35 35 36 33 35 39 42 44 40 41 48 46 48 51 50 51 49 51 50 49
49 50 51 52 53 53 54 53 50 50 45 37 46 53 51 55 55 56 54 49 46 44 43 36 34 35 39 35 40 39 44 44 42 41 45 46 49 48 50 50 49 50 48 48
50 51 51 51 52 54 54 51 50 50 51 39 41 50 51 52 53 52 52 51 48 44 39 35 37 36 37 36 36 36 44 43 39 39 47 48 48 49 49 48 48 48 46 44
50 52 53 52 52 53 53 51 50 49 48 44 37 45 45 48 50 49 48 48 46 44 41 36 39 42 39 34 35 43 46 47 47 47 49 49 49 48 49 47 46 46 44 44
51 51 51 51 51 51 49 47 49 48 48 41 37 37 43 44 46 44 44 44 43 44 41 36 38 39 41 34 36 40 44 46 46 48 48 46 44 42 45 44 43 42 41 41
49 50 50 50 50 49 49 47 48 47 45 41 35 34 37 43 39 38 43 39 41 41 40 38 36 38 36 35 38 40 42 43 44 44 44 43 43 43 42 42 40 36 34 34
49 49 49 50 47 45 47 48 48 47 47 36 32 34 34 43 37 37 39 40 35 39 35 37 39 34 33 33 35 36 37 37 40 41 41 41 38 37 37 37 36 33 33 36
49 49 45 39 43 48 48 45 42 40 37 38 32 37 34 41 36 34 36 35 34 33 35 39 34 33 35 36 36 37 37 40 42 37 34 35 35 35 35 35 37 37 37 37
45 41 39 44 47 45 38 34 35 35 33 36 36 37 36 39 36 34 34 33 34 31 34 35 33 32 33 37 37 39 40 41 40 40 39 37 37 36 35 35 36 37 37 36
45 44 44 42 40 36 35 33 34 33 32 34 35 35 38 36 38 35 35 32 33 30 36 33 30 31 36 37 37 38 40 40 40 41 40 40 39 40 38 37 37 36 35 32
45 41 37 39 34 33 29 30 32 32 33 34 34 33 34 36 37 34 35 33 31 35 32 31 31 34 36 37 38 38 39 38 38 40 40 39 38 37 36 34 35 32 34 35
35 34 33 30 32 32 32 33 33 32 33 33 34 33 34 33 34 33 33 32 33 30 28 26 32 34 34 37 38 38 35 31 35 36 36 34 33 33 30 27 26 25 32 33
34 35 28 29 31 32 32 32 33 33 34 34 33 33 35 32 32 32 31 28 25 26 26 30 32 31 35 35 35 36 35 29 33 36 33 28 28 30 31 32 32 31 28 28
34 32 30 32 32 32 32 32 32 34 33 33 34 32 31 29 29 28 26 26 23 27 31 31 33 33 34 36 36 35 36 35 35 35 34 32 29 28 31 30 30 27 28 25
32 31 33 32 32 32 32 33 33 35 34 31 31 26 26 30 25 24 29 26 28 32 32 33 33 33 34 35 34 33 34 34 33 33 32 31 30 29 29 27 29 28 29 27

GFSNW_sfc_temp_045.txt.gz
Temp
54 53 53 54 54 53 53 61 54 68 71 57 60 57 64 64 71 73 70 70 70 67 68 65 65 65 70 74 74 67 71 66 57 62 70 72 70 66 65 53 52 54 51 55
53 53 53 54 53 53 60 55 58 63 69 53 54 64 65 70 69 70 68 67 72 72 67 61 66 67 67 71 70 68 69 62 53 56 63 67 63 67 67 65 59 52 47 55
53 53 53 53 52 54 64 59 50 52 58 67 62 60 62 63 71 70 73 70 73 68 66 70 64 65 64 67 70 53 62 65 59 52 59 66 59 63 66 63 51 53 56 61
53 53 53 53 52 54 59 55 59 61 52 60 64 65 65 62 63 69 72 69 69 67 61 64 63 67 63 65 55 65 67 58 63 64 64 63 63 63 64 60 61 54 60 63
52 52 52 52 52 53 53 56 63 66 64 65 63 59 62 63 68 68 65 66 70 71 65 66 63 67 65 63 65 65 67 57 59 54 61 60 58 62 63 64 64 65 65 64
52 52 51 52 51 55 52 65 66 69 59 62 61 62 64 66 70 66 70 71 70 67 68 71 72 74 73 72 65 63 62 58 53 48 55 55 43 56 61 64 67 65 57 66
52 51 51 51 51 54 65 68 68 60 55 62 62 65 67 67 67 65 68 74 70 66 74 73 72 70 68 68 65 68 59 57 52 46 41 35 61 66 65 62 66 69 69 70
51 50 50 51 51 52 64 66 62 61 46 63 62 66 66 68 66 67 66 64 70 73 71 61 54 53 50 57 62 62 65 57 45 40 47 55 60 63 60 58 59 68 66 69
51 50 50 51 51 52 57 59 66 62 58 59 69 66 68 62 62 61 58 68 70 67 64 56 50 48 55 52 54 60 59 59 52 45 38 34 55 62 65 64 52 67 67 65
50 50 51 51 51 52 57 61 65 64 64 67 69 64 64 70 67 64 59 60 60 65 55 45 50 51 59 50 47 39 45 45 42 44 41 50 63 63 64 48 51 65 66 66
50 50 50 50 51 52 56 60 67 62 65 64 66 72 69 70 70 59 63 60 60 59 51 51 53 48 54 54 59 51 48 45 40 45 36 37 65 62 53 60 66 65 66 66
50 50 50 51 51 51 55 55 68 70 69 61 67 66 67 68 73 72 65 67 64 65 60 54 53 43 42 52 48 62 51 57 54 55 54 63 67 65 67 67 64 64 64 66
49 50 50 50 50 52 57 61 68 71 60 61 64 63 66 70 69 71 66 67 71 68 69 61 56 43 56 41 52 56 61 61 55 54 62 64 64 66 66 66 63 65 65 64
49 50 50 50 50 52 54 60 63 69 60 47 55 68 62 68 70 70 70 70 67 67 68 55 45 45 61 53 57 57 61 60 58 57 63 63 62 61 61 61 63 63 63 61
49 50 49 50 52 52 56 59 59 62 66 49 52 62 64 68 69 68 69 68 66 63 56 45 50 57 54 53 54 53 63 59 52 52 57 56 59 57 59 58 58 59 58 56
49 49 50 51 53 54 65 58 59 61 69 57 47 59 58 65 67 67 66 68 67 67 55 50 58 56 57 43 50 55 57 57 57 57 58 58 57 57 58 55 55 55 53 50
49 50 51 52 53 65 59 60 58 55 66 55 45 47 57 59 63 61 64 64 62 63 55 46 53 54 58 42 48 53 53 55 56 57 57 52 55 50 52 50 48 46 45 44
50 51 52 52 51 51 58 56 50 54 61 61 43 42 48 58 51 48 59 54 60 52 48 48 46 50 48 46 49 50 52 55 54 54 56 53 51 49 47 45 43 41 40 40
51 51 51 60 60 60 58 49 51 61 60 52 39 40 38 54 48 50 50 56 42 53 43 45 49 42 41 43 46 46 47 47 49 49 48 47 45 43 43 44 43 42 43 47
49 62 63 53 56 49 51 56 55 57 54 51 39 48 40 50 45 42 45 44 42 39 42 50 42 38 42 44 44 45 48 49 46 41 39 38 38 41 43 45 48 48 46 46
60 55 49 57 51 59 53 45 48 52 40 44 44 48 42 49 42 38 44 39 42 36 41 41 38 36 37 42 43 47 50 48 47 46 44 47 47 45 45 45 45 43 43 42
56 55 57 58 56 49 40 37 39 40 37 39 39 42 45 43 53 44 45 38 41 34 46 39 36 35 39 41 43 46 48 48 47 48 47 47 47 47 46 45 43 41 41 36
61 55 43 50 40 37 36 34 35 35 37 38 40 36 42 43 49 40 40 34 36 46 35 36 36 37 38 41 44 45 48 47 47 47 48 47 44 43 43 40 40 39 41 41
48 40 35 37 34 35 36 37 36 35 37 39 40 37 39 40 37 39 35 34 40 33 32 33 34 36 38 44 46 45 43 39 44 44 43 41 40 38 35 33 33 33 35 36
42 41 32 32 33 34 34 35 36 36 39 41 39 40 43 36 36 37 35 32 31 34 34 34 34 36 41 43 45 43 39 36 41 43 38 34 36 38 37 37 37 34 31 30
38 36 33 33 33 32 33 33 33 38 38 44 46 38 36 34 36 33 34 34 34 33 36 35 36 37 41 43 43 43 44 43 42 41 38 36 34 34 37 36 34 32 31 29
36 32 34 34 33 32 32 34 34 38 37 34 39 34 32 38 34 32 38 33 35 35 36 36 37 37 41 43 42 37 41 41 41 40 39 38 37 35 35 34 35 35 35 31

GFSNW_sfc_temp_048.txt.gz
Temp
54 54 54 54 54 53 51 54 49 68 68 52 56 52 60 62 68 74 71 70 69 66 67 64 64 63 69 76 74 66 71 65 55 61 72 73 69 64 65 49 49 52 47 50
53 54 54 53 53 53 52 50 55 64 66 48 50 58 60 66 66 69 69 66 70 72 67 61 66 68 70 75 72 67 70 61 49 55 64 68 63 66 66 64 58 50 42 51
53 53 53 53 53 53 53 53 46 50 56 63 57 55 57 59 69 69 72 70 72 69 65 70 64 66 66 69 71 55 64 63 57 49 57 64 60 62 66 63 47 49 50 58
53 53 53 53 53 52 52 50 54 56 45 51 58 60 61 59 60 69 71 68 68 67 60 64 63 68 63 66 56 65 66 56 61 63 65 65 62 62 64 61 61 51 56 60
52 53 53 52 52 52 50 49 55 61 59 58 56 56 58 60 64 67 64 65 69 69 63 65 62 67 64 62 64 64 67 56 58 55 62 62 57 61 63 63 63 63 63 62
52 52 52 52 52 52 49 61 60 55 54 55 54 56 60 62 68 69 72 70 68 65 69 73 72 75 73 71 64 61 62 56 51 45 55 52 42 55 59 62 65 64 55 64
52 52 52 52 52 52 57 63 60 52 52 56 57 61 64 64 67 65 72 72 67 70 75 74 73 71 70 70 69 69 61 57 50 43 40 34 57 68 66 61 64 67 67 67
51 51 51 51 51 52 52 61 55 54 44 60 61 62 62 67 69 65 62 69 73 74 70 59 53 51 49 57 65 64 67 55 44 38 43 52 58 63 61 59 58 65 64 66
51 51 51 51 51 51 51 54 54 55 54 57 67 64 66 60 62 60 58 69 74 72 62 54 48 45 54 52 55 63 62 60 48 43 38 33 55 63 67 65 48 65 65 64
50 50 51 51 50 51 52 51 54 53 50 62 69 64 61 69 62 53 58 59 60 66 51 42 49 49 61 50 45 38 44 43 39 42 38 47 64 65 65 46 48 63 64 64
50 50 50 50 50 51 51 49 53 51 55 66 72 73 67 69 66 48 55 59 61 57 49 49 52 46 54 54 58 48 44 43 37 44 35 34 66 62 52 58 63 63 64 63
50 50 50 50 50 51 51 47 56 58 52 61 67 67 69 65 67 65 62 65 62 63 58 53 53 41 41 50 46 64 49 56 50 50 48 62 67 63 65 65 62 62 61 63
50 50 50 50 50 51 51 51 56 58 61 61 65 62 65 69 70 72 62 66 71 67 71 60 54 40 54 39 50 55 62 63 54 54 63 64 64 64 63 63 61 63 63 61
48 49 50 50 51 51 51 51 56 57 61 48 56 68 64 69 71 71 72 71 69 68 66 55 43 43 63 51 58 56 60 61 58 57 63 61 60 58 58 60 61 60 60 59
49 50 50 50 50 51 51 54 57 58 55 48 51 62 65 70 70 69 70 68 66 63 54 42 50 58 54 53 55 52 63 58 51 50 56 56 52 56 58 56 55 57 54 49
49 49 49 49 50 50 53 50 60 60 60 56 45 59 60 67 69 67 67 67 67 66 54 51 58 59 56 42 48 58 58 60 59 56 59 56 54 55 55 52 51 50 47 47
48 49 49 50 50 52 51 52 54 51 59 53 42 45 56 61 64 63 63 65 62 63 56 49 53 54 56 42 47 55 56 58 57 58 58 52 54 47 50 48 46 46 46 46
49 49 49 50 50 50 52 53 52 51 61 58 41 39 48 58 51 49 58 55 58 54 48 49 47 50 49 45 52 54 54 56 54 54 55 52 51 48 46 47 46 44 42 43
49 50 51 53 53 52 52 49 50 62 55 47 38 39 38 55 49 48 50 55 41 51 43 46 50 42 41 49 49 50 51 51 49 50 51 50 46 45 44 45 43 42 43 45
51 55 54 43 49 49 52 58 53 53 51 51 41 46 40 48 44 42 43 44 41 40 42 50 41 38 45 47 49 49 51 51 50 44 41 42 42 42 43 44 45 44 44 43
60 52 45 51 49 57 54 43 45 47 41 45 45 47 42 49 41 38 44 40 42 37 41 41 38 38 40 46 47 51 51 50 48 48 46 47 45 43 43 43 43 42 39 37
58 57 57 59 56 49 39 36 40 40 37 40 40 42 45 44 53 43 44 38 41 35 45 36 35 36 42 44 45 47 48 47 46 48 46 46 47 47 45 42 40 38 36 33
62 53 42 48 39 36 35 33 35 34 36 38 39 37 42 45 47 39 38 34 36 45 35 36 36 38 42 44 45 45 47 46 45 46 47 45 42 41 39 36 36 36 36 34
46 38 34 36 34 33 34 35 35 34 35 38 39 37 39 40 36 37 34 35 39 33 32 34 34 38 41 44 45 43 42 38 43 43 41 37 36 34 33 31 32 30 33 32
39 38 31 31 32 33 33 34 35 36 40 41 40 40 41 36 35 37 34 32 32 35 34 34 35 37 41 42 42 40 38 36 39 39 35 33 34 35 34 34 34 32 27 27
37 34 33 33 33 32 33 33 33 37 39 42 45 37 34 34 35 34 34 34 33 33 34 35 36 38 41 43 40 40 42 41 39 37 36 35 34 33 34 34 32 28 27 25
34 32 33 33 33 32 32 33 34 39 39 35 39 33 32 37 33 32 34 32 33 35 34 35 37 37 40 41 40 38 40 40 39 38 38 36 36 34 34 33 33 34 33 26

GFSNW_sfc_temp_054.txt.gz
Temp
52 53 53 54 54 54 51 49 42 56 59 44 42 43 49 52 55 59 57 57 55 55 54 53 52 53 58 62 61 55 56 47 40 50 57 59 53 51 51 35 39 36 31 38
51 51 51 53 54 54 48 45 48 54 58 38 38 46 49 52 53 55 56 55 59 59 54 49 54 55 59 60 62 56 57 46 36 43 51 55 50 54 54 48 41 38 29 37
49 51 50 51 53 54 49 47 40 46 50 51 45 43 45 45 55 54 56 56 57 55 52 56 52 53 58 57 59 54 56 49 44 38 45 50 47 52 53 48 33 37 38 45
50 51 51 49 52 53 49 46 44 47 40 43 47 47 47 45 46 55 58 55 55 52 49 51 51 53 54 57 55 56 54 47 49 50 52 53 50 50 50 49 47 40 45 46
50 51 51 50 51 53 46 44 42 48 44 48 45 45 45 46 50 53 53 52 55 55 51 53 51 54 52 51 53 53 54 45 44 43 48 49 45 49 49 50 51 49 48 48
50 50 50 50 49 51 44 49 48 49 47 45 43 44 47 49 54 55 59 57 55 53 56 58 59 59 59 58 53 49 49 44 37 36 42 42 34 45 49 51 50 51 43 48
50 50 50 50 49 51 49 50 50 46 39 46 46 48 50 51 54 51 58 60 54 59 61 58 56 55 55 55 50 54 45 42 34 31 32 26 46 54 53 49 49 50 51 49
49 48 49 49 47 51 52 52 49 45 38 47 49 49 50 52 55 53 56 60 60 61 56 46 43 38 42 46 51 51 51 40 33 30 30 39 47 52 50 47 44 50 49 50
48 47 46 46 47 47 52 51 51 48 41 43 54 48 51 48 49 50 52 56 56 55 47 38 36 34 42 41 47 50 48 43 37 30 28 25 42 51 56 53 36 50 50 50
48 48 47 47 48 48 51 49 50 47 44 47 53 49 48 55 51 45 49 51 49 52 36 34 33 35 47 37 37 35 33 31 30 24 26 33 48 54 54 38 38 50 50 49
48 48 47 48 48 51 51 47 51 47 45 47 52 51 51 55 55 46 47 47 46 42 36 37 37 33 39 38 44 40 38 32 27 29 26 30 52 52 44 45 48 49 49 48
47 47 48 48 51 52 52 45 51 51 44 46 52 53 54 52 56 54 47 51 48 47 42 42 39 36 34 36 33 47 37 41 36 38 36 47 49 49 49 50 49 48 47 49
47 48 49 50 51 51 51 46 48 48 44 45 48 48 57 60 58 59 48 47 54 50 51 45 42 36 38 33 33 40 46 49 42 42 45 45 48 49 50 49 46 46 47 49
48 49 50 50 51 51 51 45 49 48 46 39 43 59 54 60 59 60 58 56 54 52 47 40 37 36 45 34 42 41 46 49 43 40 44 46 47 47 46 45 45 43 43 44
49 49 50 50 50 50 48 49 49 51 47 39 44 52 56 57 57 58 57 56 53 46 41 34 37 41 40 38 39 35 48 47 38 35 47 44 43 44 46 43 42 42 41 39
49 49 49 49 49 50 45 42 47 50 51 44 38 50 51 53 56 56 53 53 50 49 44 36 43 49 41 34 30 45 47 48 48 44 46 44 42 43 44 41 40 41 39 39
48 48 49 49 49 48 44 41 47 51 50 43 37 39 48 52 53 49 50 51 47 48 44 40 42 43 41 32 33 45 46 46 45 46 45 40 41 37 41 40 40 40 39 38
48 48 48 49 49 49 46 49 50 51 47 46 36 38 41 50 42 42 47 45 45 44 42 39 36 40 34 33 42 44 45 46 45 43 44 42 41 40 39 40 39 37 36 35
48 48 49 48 46 44 47 49 49 51 48 39 34 35 35 45 42 40 39 41 36 41 36 36 40 35 33 39 42 42 44 42 39 40 41 40 38 38 38 39 37 35 35 35
48 47 45 40 47 50 52 48 45 45 43 40 35 40 36 43 35 36 33 35 34 30 36 42 33 33 39 40 42 43 43 42 41 36 35 37 37 38 38 37 37 36 34 32
46 43 40 46 49 49 44 39 36 37 33 36 39 37 38 42 35 34 34 33 34 31 35 33 33 32 37 42 43 44 44 44 41 42 41 42 41 39 36 36 35 33 30 30
49 48 49 48 45 39 35 33 33 34 32 35 36 37 40 38 44 36 36 34 30 29 38 33 30 34 41 42 42 43 44 44 43 44 42 41 41 39 36 33 31 29 30 28
49 44 38 40 34 31 27 28 31 31 33 35 35 34 36 38 39 34 33 30 27 32 25 32 32 37 40 41 41 42 43 42 41 41 41 38 37 35 32 29 29 29 28 27
39 36 31 32 31 30 30 31 33 33 33 35 35 34 34 34 34 33 31 32 32 28 24 26 33 36 39 41 41 38 36 35 35 35 34 32 31 30 30 29 27 27 26 26
34 34 28 29 31 32 32 33 33 34 35 32 33 34 36 33 33 32 32 31 28 27 27 31 34 37 39 38 37 35 33 33 33 33 31 29 29 29 28 29 29 27 23 20
33 32 32 33 32 32 32 32 33 35 34 34 35 33 31 30 31 31 29 28 26 29 31 33 36 36 36 36 35 35 35 33 32 31 31 30 28 28 28 28 26 22 21 18
32 30 32 32 32 31 32 32 33 35 34 32 30 31 29 32 30 28 30 27 30 32 33 35 36 35 35 34 34 33 33 33 32 31 31 30 30 29 27 26 26 27 24 17

GFSNW_sfc_temp_057.txt.gz
Temp
52 53 53 53 53 54 52 43 38 53 57 42 41 40 46 51 55 56 53 53 52 51 52 49 50 51 56 60 56 53 53 46 39 49 53 55 52 50 47 34 37 35 30 36
52 51 53 53 52 53 48 40 45 53 54 39 37 45 47 51 52 52 52 51 53 53 50 47 51 52 58 59 57 52 53 43 36 43 48 50 48 50 49 45 38 35 29 36
51 49 52 53 53 53 49 42 39 45 48 51 45 41 42 44 53 51 52 51 53 50 49 54 50 51 55 56 58 52 55 46 44 39 45 50 47 48 49 46 32 36 36 43
51 50 50 52 52 52 48 43 42 45 39 42 45 46 45 43 45 51 52 48 49 48 44 49 49 51 53 55 52 53 52 45 46 47 48 50 49 50 48 46 44 39 43 43
50 51 51 51 51 51 44 40 43 44 41 47 45 44 43 44 47 49 47 48 52 52 48 51 48 52 50 51 52 50 51 42 43 40 45 47 44 49 48 47 47 46 46 45
49 50 51 50 51 47 43 48 48 45 43 43 43 43 44 46 50 51 54 52 52 48 52 56 57 57 56 56 52 48 47 42 36 36 40 40 35 42 47 48 49 48 41 48
50 50 50 50 50 48 44 50 48 44 38 43 44 46 49 46 49 48 54 55 50 55 60 58 54 51 52 53 50 51 44 40 34 30 32 25 45 49 51 47 46 47 47 48
49 50 50 50 50 49 42 47 46 44 36 44 46 46 47 49 51 50 52 54 58 58 54 46 42 37 40 44 48 48 48 38 31 30 30 37 45 47 47 46 43 47 45 46
49 49 50 50 50 50 44 45 49 45 41 43 50 46 48 44 45 46 50 54 55 54 46 38 37 34 40 40 44 48 46 41 36 28 28 26 41 49 54 50 35 49 49 46
49 49 49 49 50 49 45 46 49 45 41 45 49 45 45 50 48 44 46 48 48 51 35 34 33 36 45 36 36 35 32 31 31 24 26 34 46 52 52 38 39 48 49 48
48 48 49 49 50 50 45 46 49 46 43 46 48 49 48 48 51 41 45 47 45 40 36 37 34 32 38 37 42 38 37 32 27 27 24 31 50 48 43 45 44 48 47 47
48 48 48 47 47 48 47 44 49 51 44 44 48 49 51 50 52 52 46 46 46 46 40 38 36 34 32 35 33 45 39 40 36 38 37 46 47 49 47 48 47 46 47 46
47 47 48 47 47 48 47 47 47 46 41 41 44 46 52 55 53 55 46 45 51 48 48 42 40 35 37 33 34 39 44 46 39 41 44 43 45 45 46 47 45 46 47 46
48 48 47 48 48 48 50 47 47 45 43 37 42 57 53 57 56 55 55 55 52 49 46 40 37 34 44 38 42 40 46 47 40 38 41 45 45 43 42 42 42 42 42 43
47 48 48 48 49 51 49 48 48 49 44 39 38 50 55 57 54 54 56 54 50 44 40 35 37 39 40 36 39 39 47 43 39 37 45 44 43 42 43 42 40 41 40 39
48 48 48 49 50 50 47 41 45 50 50 42 35 47 49 54 54 53 54 53 49 47 43 39 44 46 40 35 34 45 46 47 48 47 49 42 41 41 42 40 39 39 39 39
48 48 49 49 49 48 42 38 43 51 50 42 35 37 48 51 51 48 49 48 46 46 43 38 40 41 41 31 31 42 44 43 43 44 43 38 39 36 39 39 39 39 37 37
49 48 49 49 50 49 42 48 50 50 46 45 35 36 40 49 43 43 45 42 43 44 42 40 33 39 35 35 39 41 44 44 43 41 43 41 39 38 37 38 38 35 34 34
48 48 49 48 43 39 44 49 50 49 45 36 33 34 34 45 41 40 41 42 36 42 34 38 40 35 36 40 40 41 42 41 37 39 39 38 36 36 36 37 35 33 32 33
48 46 41 35 40 49 49 47 43 44 43 41 35 40 35 43 36 35 37 36 35 34 37 40 34 34 39 40 43 42 41 40 40 35 33 35 34 35 35 35 36 35 32 31
41 40 38 45 50 45 42 35 34 36 33 36 37 39 38 42 36 35 35 34 33 33 35 35 32 33 36 40 41 42 43 42 41 42 41 41 39 37 35 35 33 32 31 30
44 45 48 47 44 38 34 32 33 34 33 35 36 37 40 37 41 35 35 34 32 31 37 33 32 33 38 39 39 40 41 42 42 43 41 41 40 39 35 33 31 30 30 27
46 44 37 39 33 32 31 29 30 31 33 35 35 34 35 36 36 33 31 26 28 34 32 31 32 37 39 40 41 41 43 41 40 40 39 37 35 34 32 30 29 29 29 28
37 35 30 31 30 30 30 32 33 33 33 34 35 33 34 33 32 30 29 32 33 20 22 27 33 37 38 39 39 38 36 35 35 35 34 32 31 30 29 29 28 26 26 26
33 33 28 29 31 32 32 33 33 33 35 34 34 34 35 32 32 30 32 30 28 23 24 31 34 37 37 36 35 33 32 32 32 32 31 29 29 29 28 28 29 26 22 21
33 31 31 32 32 31 32 32 33 35 33 33 33 32 31 30 31 30 28 25 26 28 31 33 36 35 35 35 34 34 33 32 31 30 30 29 28 27 28 27 25 22 21 18
31 29 32 32 31 31 32 32 32 35 33 31 30 31 30 31 29 27 29 26 29 31 32 33 34 33 32 32 32 31 31 31 30 30 30 30 30 27 26 24 25 26 23 18

GFSNW_sfc_temp_060.txt.gz
Temp
52 52 53 53 53 54 50 44 35 50 55 42 44 41 43 50 52 54 52 50 49 48 48 46 46 48 54 57 55 51 52 44 38 46 50 53 50 47 45 34 36 33 30 34
52 52 52 53 52 54 46 40 41 52 53 36 39 46 46 48 50 50 49 48 50 50 47 44 48 49 56 55 55 51 51 42 35 40 45 47 45 47 46 42 37 34 28 36
52 52 52 52 52 53 47 40 32 43 46 49 44 43 43 42 51 50 50 48 50 48 46 50 47 49 53 55 56 52 54 44 41 38 42 46 42 46 46 45 32 36 35 41
52 52 52 52 52 52 46 40 37 43 37 39 43 46 46 41 42 50 49 45 47 46 41 45 47 50 51 53 51 50 51 43 43 45 46 48 47 47 44 43 43 38 42 41
51 51 51 52 52 52 44 36 38 43 40 44 43 44 43 43 44 45 44 44 48 48 44 48 47 50 48 48 49 48 48 43 42 39 42 44 42 47 46 45 44 43 43 43
50 51 51 51 52 51 39 42 43 43 43 43 40 41 44 44 48 49 50 50 49 46 50 55 54 54 54 52 47 45 45 41 37 36 38 40 34 41 46 47 46 46 39 46
50 50 50 51 52 50 43 42 42 40 35 41 42 44 48 45 47 45 51 51 47 53 58 55 53 50 50 50 46 49 41 39 34 30 31 25 44 46 48 46 46 46 45 44
49 50 50 50 51 52 44 43 41 41 34 42 44 44 46 49 49 48 50 52 57 57 55 45 41 36 40 42 45 45 46 37 32 31 30 37 43 45 45 44 44 46 44 44
49 50 50 50 50 51 46 44 43 43 39 39 48 45 46 44 42 43 47 54 54 54 43 39 35 33 38 38 41 46 44 40 36 28 28 26 40 47 50 49 37 47 46 44
49 49 50 50 50 50 46 43 45 41 38 45 48 43 43 49 44 39 44 48 46 50 32 30 31 35 43 35 36 35 32 31 31 24 26 34 45 48 50 37 39 46 47 47
49 49 50 50 50 49 44 42 46 43 41 45 46 48 45 48 48 38 42 46 43 37 35 34 32 30 38 37 41 39 38 34 29 27 25 31 49 47 43 45 42 45 46 45
49 49 50 50 50 49 47 39 46 49 44 43 47 47 49 55 55 50 45 45 44 44 40 36 34 32 32 37 34 44 37 42 37 40 38 46 47 47 46 47 46 46 46 44
49 49 49 49 49 49 47 42 45 45 41 43 44 44 50 51 51 54 45 43 49 46 47 41 39 35 37 33 35 38 44 46 40 41 44 44 44 44 45 45 44 45 45 44
48 48 48 48 48 49 48 43 45 46 43 36 41 52 50 54 53 52 53 52 49 47 45 38 37 35 43 35 42 39 44 46 41 40 42 44 45 42 43 42 43 42 42 42
48 47 47 48 49 48 46 44 47 48 43 37 38 46 53 55 52 51 51 51 48 43 39 35 37 39 39 36 37 31 45 44 40 42 48 47 44 41 42 41 40 41 40 38
47 47 48 48 48 48 43 38 47 49 48 40 33 43 45 50 52 51 48 50 47 45 41 37 41 44 40 34 32 44 47 48 48 48 47 41 40 40 41 39 38 39 38 39
47 47 48 48 48 45 41 38 45 49 48 39 34 36 45 49 51 48 48 47 44 45 42 36 40 40 40 30 32 43 42 43 43 43 43 39 40 37 38 38 37 38 37 37
47 48 47 48 48 47 41 47 50 51 45 43 34 35 38 48 43 42 46 43 43 43 41 38 34 39 33 36 39 39 40 40 39 38 40 40 38 37 36 37 37 34 33 33
47 48 48 46 43 39 41 49 49 49 44 34 32 33 30 43 40 40 41 43 36 40 35 37 39 33 36 39 38 39 41 41 36 37 38 38 35 34 35 35 34 32 32 33
48 47 41 34 39 48 51 46 40 42 41 41 34 39 34 40 35 36 36 36 35 34 36 40 34 34 38 39 43 43 40 39 39 34 33 33 33 33 33 34 35 34 32 32
39 36 36 42 49 45 41 34 34 36 34 36 36 37 36 41 35 34 35 34 34 33 35 35 33 32 37 40 40 41 41 40 40 41 41 41 38 35 33 33 33 33 33 32
41 44 45 45 43 37 31 33 33 34 33 34 35 37 39 37 40 36 34 32 32 32 36 34 31 33 37 37 37 39 40 41 40 40 39 38 38 37 33 31 31 31 30 28
44 43 37 39 34 30 22 27 30 31 33 35 35 34 35 34 37 33 32 30 30 34 33 32 32 37 38 39 40 40 41 40 39 38 37 35 33 32 31 30 30 30 29 28
37 33 30 31 29 30 31 32 32 32 33 34 34 33 34 33 33 31 32 32 33 28 27 28 33 36 37 39 39 37 35 34 34 33 32 31 30 30 30 29 28 27 27 26
32 33 28 29 31 32 32 32 33 33 34 34 34 34 35 32 31 31 31 30 27 25 23 31 33 35 36 34 34 33 32 32 32 32 30 28 28 27 27 28 28 26 23 22
32 31 31 32 32 31 32 32 32 34 33 34 35 32 31 30 31 30 27 27 26 28 30 32 34 33 33 33 32 32 32 31 30 30 29 28 27 27 27 26 24 21 21 19
31 29 30 30 31 29 30 31 30 34 34 31 31 30 29 32 28 26 29 25 28 30 31 32 33 32 32 32 31 31 31 30 29 29 28 28 28 27 26 23 24 25 22 19

GFSNW_sfc_temp_063.txt.gz
Temp
53 53 53 53 53 53 50 42 34 48 53 38 41 39 46 50 52 55 52 52 49 49 50 48 48 50 54 57 58 54 56 50 43 51 57 58 56 53 52 44 42 41 40 44
53 52 52 52 52 53 46 38 39 48 50 33 37 44 46 51 49 51 50 49 51 53 50 47 49 51 57 56 57 54 54 48 43 46 52 55 53 53 51 48 44 41 39 46
52 52 51 52 52 53 47 38 32 40 42 47 42 40 43 43 52 51 52 50 52 51 49 51 48 50 56 55 57 51 56 48 47 44 49 52 47 50 51 51 42 44 44 51
52 51 51 51 52 53 46 39 35 41 33 36 41 44 45 43 43 51 51 48 49 49 46 48 49 53 53 55 51 54 56 48 48 50 51 51 51 51 49 49 51 46 51 48
51 51 51 51 52 52 42 35 36 40 42 42 40 42 42 43 46 47 46 46 48 51 46 50 48 53 52 52 52 52 52 48 47 46 48 50 49 52 50 50 51 50 50 49
51 51 50 51 51 51 41 42 44 42 42 40 37 38 43 44 48 49 51 50 47 46 51 54 56 57 56 56 54 49 48 45 42 42 45 46 39 46 50 51 52 53 47 54
51 50 50 50 51 51 45 44 42 39 36 40 39 42 45 45 47 44 50 51 48 53 58 57 56 54 53 52 51 53 45 44 41 37 37 32 51 52 54 52 53 54 52 53
51 50 50 50 51 52 45 46 43 40 35 42 43 43 43 48 49 47 49 52 54 57 54 44 44 40 43 44 48 48 50 42 37 36 38 43 48 50 50 50 53 55 54 54
50 49 49 50 51 52 49 42 44 43 37 40 47 44 45 43 43 43 47 54 56 53 45 40 37 35 41 41 43 47 45 45 42 35 35 34 47 53 54 57 45 56 54 51
49 49 49 50 51 51 49 42 45 42 38 43 47 44 44 50 45 41 44 49 48 53 37 35 35 37 45 39 37 37 37 37 37 33 36 41 50 53 55 44 49 53 54 53
49 49 49 50 50 51 49 42 46 42 40 42 46 49 47 49 48 40 43 46 46 40 37 36 37 35 42 42 44 40 41 38 35 34 34 37 52 52 48 54 52 53 52 51
48 48 48 49 50 50 50 41 46 46 40 43 48 48 51 58 57 50 48 47 46 47 41 39 38 35 35 42 40 46 39 45 42 44 45 52 53 56 55 53 55 51 53 51
48 48 49 50 51 50 48 42 44 43 39 43 43 45 51 52 55 60 46 46 51 48 50 43 42 37 40 35 38 42 45 48 44 46 50 50 51 51 51 52 53 53 53 50
48 48 49 50 49 49 48 42 44 43 41 35 41 52 50 54 54 56 56 54 51 50 48 40 37 38 46 39 46 44 47 48 45 45 48 47 50 49 50 49 48 48 49 48
48 49 49 48 49 50 45 44 45 46 41 35 39 47 53 53 53 53 55 53 50 47 43 37 41 43 42 39 42 40 48 47 44 44 52 53 56 53 48 46 46 47 44 43
48 48 48 48 48 47 42 36 44 45 44 38 34 45 46 51 52 50 49 51 50 48 45 41 45 47 45 37 40 49 50 50 49 51 50 45 43 43 46 44 44 44 44 43
48 48 48 48 48 44 39 38 44 46 48 38 34 36 45 50 50 50 49 50 49 48 45 41 44 44 45 36 39 49 45 45 46 45 46 43 44 43 42 42 41 41 41 41
48 48 48 48 48 47 41 46 49 50 44 41 32 35 41 48 43 42 47 44 45 44 43 40 41 41 38 38 44 42 42 42 42 41 43 43 40 40 38 39 39 37 36 37
48 48 48 45 43 40 42 49 49 48 45 34 32 33 34 44 40 41 42 43 35 41 36 39 42 37 38 44 43 42 42 43 38 39 40 40 37 37 37 38 37 35 35 36
47 44 39 33 41 48 48 44 40 41 42 38 34 37 35 41 36 37 37 36 34 33 37 41 37 37 42 43 45 44 41 40 40 35 33 35 35 35 35 36 37 36 35 35
40 39 37 42 48 44 40 33 33 35 33 37 37 38 37 42 36 35 36 33 33 32 36 37 34 35 39 41 42 43 42 42 41 43 41 42 39 36 34 34 34 33 33 31
42 43 45 44 40 37 34 32 33 34 34 35 35 37 39 38 42 36 35 33 32 31 37 34 32 35 38 39 38 39 41 41 40 40 38 37 36 36 35 33 32 31 29 28
44 41 37 36 33 30 30 28 31 31 33 35 35 34 37 36 38 33 33 31 31 34 33 32 32 36 37 38 39 39 41 39 38 36 36 35 33 34 32 29 30 30 28 28
35 33 30 31 30 32 32 33 34 33 33 35 35 33 35 34 33 33 32 33 32 30 29 28 33 35 37 38 38 36 33 33 33 32 32 31 30 29 28 28 28 27 26 27
32 32 28 29 31 32 32 33 33 33 35 35 34 34 35 32 32 32 33 30 28 28 27 31 32 33 34 33 33 32 31 31 30 30 29 28 28 28 27 27 28 27 25 24
32 30 29 31 30 29 30 31 32 33 33 35 34 32 32 30 32 30 28 28 26 28 30 32 33 32 32 32 31 31 31 30 29 29 29 28 26 26 26 26 25 23 23 22
31 27 28 28 28 26 28 29 29 33 33 31 32 29 27 32 27 25 28 25 28 30 31 32 32 31 30 31 30 30 30 29 29 28 27 26 26 27 27 24 25 25 23 21

GFSNW_sfc_temp_066.txt.gz
Temp
53 53 53 53 52 53 50 46 34 57 58 37 39 38 50 53 58 61 57 56 54 53 55 55 58 58 63 68 70 61 68 62 54 59 66 67 68 64 63 52 50 53 50 53
53 53 53 53 52 52 50 39 39 54 55 32 33 45 48 54 54 57 56 54 56 57 55 51 58 60 67 68 67 64 66 59 50 53 59 62 61 64 64 62 57 52 46 53
52 52 52 52 52 52 52 39 32 40 42 52 43 42 45 46 57 56 59 56 58 54 53 58 54 57 59 64 68 57 63 62 56 50 57 63 57 61 63 61 52 53 55 59
52 52 52 52 51 51 48 39 37 45 32 37 46 46 48 45 47 55 58 55 54 53 50 52 53 57 57 59 54 64 65 57 61 62 64 65 62 62 63 59 60 54 59 61
52 52 52 51 51 51 43 36 41 49 44 44 44 45 45 46 50 53 51 52 55 55 50 53 50 56 57 59 59 61 65 57 60 55 62 61 58 62 63 62 63 63 62 62
52 52 51 51 50 50 41 47 54 52 46 43 42 44 45 48 53 56 59 57 54 50 54 58 59 60 60 61 59 58 59 58 54 50 56 55 44 54 61 62 64 63 58 66
52 52 51 50 50 50 48 48 51 44 41 44 41 45 49 49 53 51 57 59 54 59 61 61 61 59 59 61 61 63 56 56 55 48 43 36 59 63 67 64 66 69 67 69
51 51 50 50 50 50 52 51 51 48 38 48 47 45 47 51 54 54 56 58 62 63 58 49 43 45 50 55 58 58 61 56 48 42 46 55 58 56 59 59 61 70 67 71
50 51 50 49 50 50 52 53 57 50 44 45 52 46 48 48 50 50 55 63 62 59 51 48 40 33 47 47 49 54 55 55 52 44 43 37 55 65 68 67 53 71 70 69
50 50 50 49 50 50 52 51 55 51 44 52 53 45 44 54 53 50 54 54 55 60 46 40 41 39 49 44 43 40 44 45 43 45 43 52 63 61 66 50 55 71 71 70
50 49 49 49 50 50 52 49 54 51 45 52 56 55 50 53 55 48 54 53 53 50 44 44 44 41 46 46 52 47 46 44 41 44 39 39 59 58 57 67 66 70 67 68
50 50 49 49 49 50 52 43 51 56 48 47 52 51 57 61 63 58 56 56 55 55 50 49 51 41 42 48 41 56 44 53 52 52 55 60 63 68 70 68 70 65 68 67
50 49 49 49 49 50 51 45 48 51 43 47 50 48 57 62 65 70 54 58 62 59 62 53 51 44 50 41 48 52 54 55 52 51 64 61 62 67 62 66 66 66 66 65
49 49 49 49 49 50 50 45 51 52 47 35 44 55 52 62 64 67 68 64 62 62 58 52 45 45 57 51 56 52 58 54 55 56 62 57 59 63 66 63 62 60 62 63
48 48 48 49 49 49 49 50 53 56 48 36 41 49 55 55 60 62 65 62 59 55 51 41 46 55 52 51 51 50 58 56 49 51 62 60 68 63 66 62 59 59 59 58
48 48 48 47 47 49 49 41 49 53 54 38 34 48 47 55 59 60 60 61 59 59 55 52 58 57 55 44 49 61 62 61 63 61 55 57 54 54 55 59 59 59 58 59
47 47 47 48 50 54 48 44 49 51 50 38 34 34 46 52 57 57 56 60 57 57 55 52 55 54 55 44 46 60 60 60 58 54 53 55 51 55 52 52 53 53 54 54
46 47 48 49 49 50 49 49 49 51 45 40 32 33 39 48 44 43 52 47 50 53 53 49 52 50 50 45 57 62 59 54 52 51 52 53 51 50 49 51 50 48 48 47
48 48 48 50 49 46 47 47 49 53 46 35 33 33 33 45 43 44 43 47 39 46 43 47 52 44 43 54 58 57 55 53 53 49 50 49 48 48 48 49 48 45 44 46
48 48 43 37 46 47 46 41 41 42 44 41 35 39 34 43 43 40 41 44 39 35 39 49 42 46 57 55 55 57 54 52 51 46 43 43 44 43 44 46 46 45 44 43
46 38 36 47 49 44 40 34 35 36 34 41 37 37 39 44 40 38 42 38 38 35 39 38 38 44 51 48 47 50 50 51 49 50 48 48 47 44 41 40 41 39 38 36
41 43 48 46 37 35 33 33 33 33 37 39 37 41 44 43 51 41 39 36 36 33 37 34 33 36 41 42 42 46 45 46 45 47 46 42 41 37 34 33 32 31 30 30
47 47 38 36 35 31 32 28 33 34 37 40 39 37 42 45 47 37 37 33 35 37 33 32 33 36 39 39 39 38 38 37 37 39 37 35 33 33 32 30 30 30 30 30
39 35 30 33 32 35 37 38 39 37 38 37 40 37 43 41 37 37 34 35 37 33 32 29 33 33 35 36 36 34 32 32 32 32 31 30 30 30 31 31 31 30 29 29
34 35 30 31 33 33 33 34 36 35 40 39 39 39 40 35 34 35 35 33 30 31 30 32 33 34 34 33 32 31 30 29 29 30 30 30 31 32 30 30 30 29 27 27
35 31 29 29 30 28 30 30 32 34 35 36 37 33 33 32 34 32 30 32 28 29 31 32 33 32 31 30 30 30 30 30 30 31 30 30 28 28 29 29 28 26 26 25
31 28 29 28 27 25 27 28 29 33 34 32 35 31 29 35 30 28 31 27 29 31 31 33 33 32 31 31 31 31 32 31 30 30 29 29 32 32 30 28 28 28 26 24

GFSNW_sfc_temp_069.txt.gz
Temp
52 53 53 53 53 53 50 43 36 57 59 36 39 36 48 53 58 66 64 62 62 60 60 58 56 53 67 73 74 66 70 65 57 61 72 75 72 65 65 54 53 57 54 56
52 52 53 53 53 52 46 39 41 57 56 33 36 46 48 53 56 59 61 59 62 64 58 54 59 59 67 72 71 67 69 61 52 57 64 68 64 68 69 66 64 55 47 54
52 52 52 53 52 52 47 39 34 41 44 52 46 45 46 47 56 56 62 61 64 60 57 61 56 58 64 67 71 60 66 64 58 51 58 65 59 64 67 65 54 55 57 61
52 52 52 52 52 51 46 39 40 47 33 37 47 49 50 47 48 56 58 57 60 58 54 56 54 58 61 62 62 67 67 58 62 64 67 68 66 64 65 62 63 56 61 63
51 52 52 52 52 51 43 35 46 49 49 45 45 46 47 48 52 55 52 53 59 61 57 58 53 56 58 59 65 64 68 57 61 58 65 66 62 66 66 66 66 66 66 65
52 51 52 52 52 50 42 44 57 53 45 44 43 46 47 49 55 57 60 59 58 57 61 63 61 60 59 61 61 61 62 59 57 50 62 61 52 60 65 66 69 67 60 68
51 51 51 51 51 50 46 50 55 46 41 43 47 48 50 51 53 52 59 61 58 65 69 65 61 59 57 59 62 65 60 59 57 49 46 39 60 70 70 66 69 72 71 72
51 51 50 50 50 51 47 56 52 48 39 49 48 49 50 53 55 54 58 62 65 70 62 53 48 43 45 52 60 62 64 58 52 45 47 55 62 63 63 63 64 73 72 74
50 50 51 50 50 51 47 54 60 53 45 47 54 49 52 49 50 52 57 66 69 64 58 49 42 35 41 43 52 60 62 59 53 49 43 39 58 68 70 72 56 73 75 73
50 50 50 51 51 50 48 47 58 55 48 55 55 49 50 56 54 52 56 59 55 64 50 42 43 43 53 41 39 43 47 47 44 47 45 54 68 71 71 52 54 74 76 76
50 50 50 51 50 50 48 46 58 56 50 53 57 58 54 55 55 50 56 53 51 52 46 46 48 46 48 49 52 49 47 45 42 48 43 41 68 63 58 66 73 74 76 76
49 50 50 51 50 50 49 45 58 59 51 52 59 63 60 64 63 60 57 55 57 58 52 53 53 46 45 50 43 59 42 54 50 54 54 67 68 70 71 73 70 74 74 77
49 49 50 50 50 50 49 50 54 54 47 49 52 53 60 64 64 63 57 57 65 62 66 60 54 46 54 41 49 54 60 64 55 56 63 67 68 70 72 72 71 75 73 75
49 50 50 50 49 49 50 52 56 55 49 40 49 63 56 62 59 60 61 63 67 68 65 55 49 48 62 52 57 55 61 64 59 58 63 67 68 66 70 72 71 70 72 72
49 49 50 49 48 49 52 55 56 58 53 44 46 55 59 62 55 56 55 58 64 61 55 49 48 59 59 58 56 55 65 61 54 53 65 63 66 65 65 69 70 69 67 67
49 49 48 48 49 52 50 39 50 58 57 47 39 53 53 58 58 54 52 57 63 61 57 53 60 65 59 49 49 61 66 68 67 63 63 62 62 60 62 63 67 69 67 68
48 48 47 48 50 52 45 46 53 54 59 48 40 42 50 54 54 54 54 55 59 60 56 52 56 59 58 49 47 62 67 68 68 63 59 59 62 60 58 59 61 59 64 66
47 47 48 49 49 50 48 53 52 57 54 49 38 36 38 50 40 45 55 52 53 55 53 57 53 55 54 47 59 63 67 67 62 61 60 60 59 58 57 58 57 57 57 58
47 47 48 48 47 44 46 49 51 59 54 41 35 35 32 46 47 46 48 52 45 55 48 50 56 50 45 55 60 62 64 63 63 59 58 58 56 56 55 55 55 54 52 54
49 51 47 39 45 47 49 42 42 46 48 46 35 40 35 39 39 40 43 47 42 38 43 56 48 49 60 63 61 62 62 61 58 54 52 52 52 53 53 54 54 52 52 51
50 44 39 47 48 49 41 36 38 41 36 42 42 40 34 40 37 37 41 38 41 37 40 41 39 45 50 53 55 57 58 59 57 57 57 56 55 52 49 48 47 46 43 39
47 49 50 49 42 35 33 33 35 34 36 43 39 35 34 38 47 44 42 38 40 35 40 35 34 34 39 43 47 51 52 52 51 50 47 48 46 42 39 35 32 31 30 31
51 50 41 38 34 30 31 29 34 34 40 41 37 34 39 43 46 39 39 36 35 41 34 33 34 35 37 37 37 37 41 42 40 37 35 33 32 32 32 30 31 31 30 30
44 36 31 33 32 35 35 38 38 37 40 43 43 39 40 42 39 38 34 36 39 34 33 32 34 34 34 34 34 33 31 31 31 30 31 30 31 31 31 32 32 32 31 31
36 36 29 29 32 33 33 35 36 36 43 45 43 42 42 36 36 37 36 33 32 32 31 32 33 34 33 31 31 30 30 30 31 32 32 31 32 32 31 32 32 31 29 28
37 32 30 32 32 30 30 31 32 34 36 46 41 36 34 33 35 34 31 33 29 29 31 33 33 31 31 31 31 31 31 31 31 31 32 32 31 30 30 30 30 29 28 27
33 30 32 31 31 27 28 29 29 33 36 33 36 32 28 37 33 29 31 27 30 32 32 33 32 31 31 31 32 32 32 32 32 32 32 33 34 34 32 29 30 29 28 26

GFSNW_sfc_temp_072.txt.gz
Temp
52 52 53 53 53 53 50 44 34 51 59 37 39 34 43 50 54 59 56 58 58 60 61 58 58 56 61 68 69 62 69 63 55 61 71 73 69 63 63 52 51 55 47 52
52 52 52 52 52 52 47 39 39 51 55 32 33 43 44 50 51 55 56 55 58 62 58 55 60 60 65 66 64 63 67 59 50 55 63 68 62 66 66 64 61 53 44 51
52 52 52 52 52 52 47 38 32 40 44 49 43 40 42 43 52 53 58 56 58 51 56 59 56 59 62 65 64 53 59 62 57 49 56 62 58 63 66 63 50 53 55 59
51 52 52 52 52 52 47 38 37 45 33 36 43 46 46 44 44 53 55 54 54 50 44 55 55 59 60 63 60 61 59 55 61 62 64 65 62 62 63 61 62 54 58 61
51 51 52 52 52 52 44 33 42 49 47 44 40 42 43 45 49 51 49 49 55 54 45 47 51 58 58 56 60 58 61 51 58 55 63 64 60 65 64 64 64 64 64 63
51 51 51 51 51 51 44 43 53 49 44 41 38 40 44 46 52 55 57 55 54 51 49 52 53 58 61 60 56 55 56 53 52 46 59 59 48 59 64 65 67 66 58 66
51 51 51 51 51 50 47 47 50 43 37 45 41 45 47 48 52 50 57 59 55 62 64 58 53 52 57 58 58 59 53 53 52 44 44 38 58 69 69 65 67 69 69 71
51 51 51 51 50 51 47 50 49 47 38 47 46 47 48 50 52 52 54 60 64 67 61 48 42 41 46 52 57 56 58 53 41 41 43 53 60 64 64 61 60 70 69 71
50 51 51 51 51 51 48 46 56 51 44 45 52 47 50 47 48 49 54 62 65 62 55 46 35 35 42 44 51 59 57 56 45 43 40 37 55 67 70 68 51 70 71 70
50 50 50 50 51 50 49 46 54 50 45 52 53 46 48 54 51 50 53 55 54 60 47 38 35 38 53 41 40 42 43 44 42 40 39 49 65 67 67 48 51 67 72 72
49 50 50 50 51 50 48 46 53 49 45 52 55 55 49 52 53 48 55 52 51 49 43 41 43 41 48 47 49 45 44 42 40 43 39 39 67 64 55 60 65 70 72 72
48 49 50 50 50 50 48 43 51 55 47 47 55 55 60 55 59 58 57 54 53 50 48 48 49 43 46 49 40 51 36 44 46 50 49 62 65 64 65 66 67 67 70 72
48 49 50 50 50 50 48 45 49 48 43 43 47 50 59 63 63 66 54 57 62 56 58 55 53 46 52 40 45 52 56 58 48 50 57 59 64 66 68 69 67 71 72 70
48 48 49 50 50 50 49 45 49 47 43 37 44 58 56 64 64 63 63 60 61 61 60 52 49 45 59 47 54 51 58 58 53 53 59 60 62 66 65 67 69 69 70 70
48 49 49 50 50 50 49 49 50 50 49 38 43 53 59 62 61 59 60 58 54 46 43 48 47 55 55 56 55 52 62 58 52 49 60 60 61 62 63 64 65 68 67 67
49 49 50 50 50 50 46 39 48 51 52 46 38 55 54 58 59 56 56 56 53 49 45 46 57 62 57 47 47 59 64 65 65 61 65 62 62 62 64 61 63 66 67 67
48 48 49 49 49 48 44 44 46 52 57 46 39 42 51 56 56 53 51 54 48 47 47 45 52 56 57 47 44 60 65 67 68 68 62 59 63 59 59 60 60 60 64 64
47 47 48 48 50 51 47 52 51 55 51 50 38 38 43 54 45 44 48 46 46 47 46 50 51 54 53 46 57 61 64 66 64 63 62 61 60 59 58 59 59 58 57 58
48 48 50 49 47 44 45 50 51 57 52 41 37 36 34 40 46 47 45 44 34 45 44 48 51 47 43 54 58 61 64 63 64 62 60 60 58 58 56 56 56 52 53 55
49 51 44 36 44 49 51 49 45 46 48 47 37 45 36 39 35 39 42 42 37 37 44 53 45 46 58 52 60 60 61 61 60 54 52 55 53 53 54 53 53 52 51 49
50 41 37 47 49 49 45 38 37 41 37 44 44 42 36 38 33 33 44 38 41 36 43 42 42 43 46 48 52 56 58 58 57 57 57 58 55 50 47 39 37 37 34 32
49 46 49 49 44 37 35 34 37 38 36 43 39 37 39 37 39 35 40 35 38 34 42 37 35 34 38 40 40 45 50 51 48 46 42 40 39 38 34 32 31 31 31 30
53 50 41 41 34 30 31 28 32 34 40 39 38 34 36 35 37 35 35 33 33 39 34 33 32 34 35 35 35 34 37 38 37 36 35 33 32 33 31 29 29 29 28 28
43 35 31 32 31 31 31 33 35 35 39 37 39 37 37 36 32 35 32 35 36 33 32 30 31 32 32 32 32 31 30 30 30 30 31 31 30 30 30 30 30 30 29 29
35 37 29 29 32 31 32 33 35 33 36 41 40 39 40 35 34 36 35 33 30 29 28 30 32 32 32 30 30 30 30 30 30 31 30 29 29 30 29 29 30 29 27 26
37 32 29 31 30 26 28 28 29 33 31 36 40 36 34 33 35 33 29 31 25 28 30 31 32 31 31 31 31 31 31 30 30 30 30 29 28 28 28 29 28 27 27 26
33 30 31 30 28 26 25 27 28 31 31 33 36 31 29 38 33 28 29 26 29 31 31 32 31 31 31 31 31 31 31 30 30 30 29 29 31 30 29 26 27 28 27 25

GFSNW_sfc_temp_075.txt.gz
Temp
52 52 52 52 52 52 49 43 33 49 52 36 36 32 40 45 45 51 49 49 48 45 47 46 44 49 54 63 61 59 59 54 46 52 64 68 64 56 55 41 43 44 38 40
51 52 52 52 52 51 46 38 38 49 49 31 32 39 40 42 42 45 46 45 51 51 48 42 44 51 58 60 59 55 57 49 40 46 56 63 58 59 59 56 50 43 33 41
51 52 52 51 51 52 47 36 31 39 42 43 38 34 36 37 46 44 47 47 50 47 46 50 40 43 56 58 59 56 57 50 46 40 48 56 52 58 59 54 40 43 44 50
50 51 51 51 51 51 46 37 34 40 32 35 36 40 39 37 37 46 48 43 44 45 41 43 40 47 48 55 55 57 55 45 50 54 59 61 57 56 56 54 54 47 50 53
51 51 51 51 51 51 44 33 36 42 40 40 36 37 36 38 40 44 42 41 45 47 42 45 41 45 45 45 55 52 55 45 50 47 55 58 56 57 57 57 58 57 56 55
51 51 51 51 51 50 43 43 47 43 39 38 34 35 38 40 44 47 49 48 44 42 47 51 51 50 48 47 47 49 52 47 45 40 51 52 40 50 57 58 61 58 51 57
51 51 51 51 51 50 46 44 45 39 33 38 36 40 41 41 44 42 49 51 47 52 58 55 51 50 49 47 45 52 47 47 43 36 40 34 51 61 61 58 62 62 60 60
50 50 50 50 50 51 47 47 44 40 33 40 41 40 41 43 45 45 47 52 55 56 51 43 38 37 39 43 47 50 52 47 37 36 38 45 53 58 55 54 53 63 60 61
50 50 50 51 50 51 48 47 49 45 38 37 47 42 44 40 39 41 46 54 54 50 45 39 32 29 36 38 45 53 52 48 39 35 32 31 47 59 63 61 43 61 61 61
50 50 50 50 51 51 49 46 49 46 39 46 49 43 41 47 44 40 45 47 46 51 35 33 30 34 42 34 35 37 35 36 35 31 31 38 57 63 61 43 42 63 62 60
50 50 50 50 51 51 48 46 49 44 40 44 50 52 46 45 46 39 44 44 43 39 33 33 32 29 39 40 44 41 38 35 35 36 33 32 59 59 51 53 57 63 60 58
49 49 49 50 50 51 50 42 48 51 43 42 51 53 56 52 51 47 47 46 45 43 37 37 37 32 32 37 31 48 39 42 40 43 40 52 57 58 60 61 60 60 59 61
49 49 49 50 50 51 49 42 46 45 41 41 44 43 53 57 54 56 43 44 51 47 48 40 39 34 41 29 34 40 46 47 40 41 48 51 54 57 58 62 62 63 63 62
49 49 49 50 50 50 49 42 46 45 38 34 39 54 52 57 56 56 54 52 51 49 49 40 40 34 47 36 43 41 47 47 45 44 51 54 56 58 58 58 59 63 63 62
48 48 48 49 49 50 47 46 47 47 43 36 39 49 54 57 54 54 52 51 47 42 40 34 36 41 43 42 43 40 52 48 43 40 54 53 54 56 59 59 58 59 60 59
48 48 48 49 49 49 45 39 46 49 47 41 33 47 50 51 52 51 48 49 46 43 39 38 43 45 42 36 36 50 55 57 57 54 56 55 55 56 57 56 56 57 58 58
48 49 49 49 49 47 40 38 44 49 47 41 33 34 45 50 49 46 45 47 43 42 40 38 41 43 42 39 33 51 56 59 59 57 55 51 53 50 54 54 55 55 56 54
49 49 49 48 49 49 44 48 50 49 46 44 30 29 36 42 38 36 43 40 40 40 39 39 40 43 41 34 47 52 56 57 56 54 54 53 53 53 52 53 52 50 49 49
48 48 48 47 44 40 42 50 50 49 45 32 30 27 26 39 37 39 39 40 33 39 32 38 41 37 35 45 49 53 55 56 54 53 53 53 50 51 51 50 49 46 42 35
48 46 40 33 41 50 50 45 40 41 42 40 29 34 30 36 34 33 35 36 34 31 34 42 35 36 43 43 47 50 51 51 51 48 46 47 46 45 43 38 38 36 35 33
44 38 36 42 48 45 41 33 33 36 31 35 35 35 33 37 32 30 35 33 33 27 34 35 33 34 39 41 41 46 44 43 42 42 46 49 43 38 34 32 32 31 29 27
44 43 45 44 41 36 32 29 32 31 30 34 34 34 33 35 37 30 34 33 33 29 39 33 31 32 36 36 35 38 40 38 36 36 35 34 33 32 31 29 28 28 28 28
45 43 36 36 31 28 25 22 25 26 30 34 34 31 33 34 36 32 32 31 31 35 33 30 30 32 33 33 33 32 34 34 32 32 32 31 30 31 29 27 28 27 26 26
37 34 28 30 26 28 27 30 32 33 34 33 33 33 32 32 30 32 31 33 34 31 29 26 29 29 30 31 32 31 29 30 30 30 30 29 29 28 28 28 27 26 25 25
31 31 24 25 29 28 29 30 31 30 32 33 34 33 35 32 32 32 32 31 26 26 23 27 29 29 30 29 30 29 29 29 28 28 27 27 27 26 25 26 27 26 25 24
30 27 25 27 25 23 25 25 26 30 29 32 34 34 32 31 31 27 25 26 21 23 27 29 29 29 29 29 29 29 28 27 27 27 27 26 25 25 25 26 25 25 24 23
30 23 26 25 23 23 25 26 26 30 29 32 32 28 27 32 26 23 26 22 25 27 28 29 29 29 28 29 29 28 28 27 27 26 26 25 26 26 25 23 25 26 25 23

GFSNW_sfc_temp_081.txt.gz
Temp
51 51 51 51 52 51 49 42 33 47 49 34 36 30 34 42 42 45 42 41 39 36 38 37 38 39 45 49 48 42 48 44 40 47 55 57 57 53 51 39 37 38 36 42
51 51 51 51 51 51 45 37 38 47 47 29 30 36 37 39 39 40 40 39 42 42 38 33 39 41 50 51 47 43 45 39 34 41 48 55 49 51 53 48 43 37 34 38
51 51 51 51 51 51 45 35 31 38 40 38 35 34 34 33 42 39 41 39 41 37 35 39 36 39 48 49 50 48 47 40 37 35 42 48 45 51 51 51 37 39 43 46
51 51 51 51 51 51 45 36 32 39 30 33 36 37 38 33 33 41 40 36 36 35 31 34 34 40 43 49 47 46 44 35 42 45 51 51 49 48 49 46 47 43 45 49
50 51 51 51 51 51 42 33 34 38 33 38 34 36 35 36 37 39 37 36 39 37 32 35 34 40 40 41 44 42 43 35 40 39 48 51 49 49 50 48 48 51 51 51
50 50 50 50 50 49 41 42 41 38 37 35 33 33 35 36 40 41 43 41 39 36 39 43 44 44 45 44 43 36 34 35 33 33 43 45 36 44 50 51 49 50 45 53
50 50 50 50 50 49 44 43 41 35 31 34 34 38 37 38 40 37 44 44 38 45 50 47 45 44 44 45 43 45 36 33 34 30 34 29 43 52 54 52 53 55 56 57
49 49 49 49 49 49 44 45 42 38 31 36 36 38 39 39 41 40 40 43 48 49 45 37 32 31 34 38 44 44 43 36 32 30 31 37 43 48 48 48 48 58 55 59
49 49 48 49 49 49 46 44 46 42 34 33 41 37 39 36 35 37 40 48 51 44 40 34 28 22 31 33 39 46 42 42 34 32 29 25 39 51 58 57 40 57 58 56
49 49 49 49 49 49 46 44 47 42 35 41 42 37 37 42 39 35 39 41 39 44 33 29 28 27 37 29 31 32 33 33 32 32 31 34 46 51 55 38 39 57 59 58
49 49 49 49 50 49 47 44 47 43 38 41 45 47 42 42 42 34 40 38 36 33 28 29 29 24 32 33 38 35 33 31 30 33 30 28 49 50 44 48 55 55 59 60
49 49 49 49 49 50 49 42 47 47 40 40 48 50 53 52 51 44 43 39 39 37 32 30 30 26 25 33 29 43 35 38 34 37 35 47 49 50 52 54 52 55 56 58
48 49 49 49 49 50 49 44 45 45 40 39 40 40 50 56 56 54 41 39 46 44 43 35 34 31 33 26 31 39 42 46 39 39 46 48 51 52 52 55 56 58 58 57
48 48 48 49 49 50 49 43 45 44 39 33 38 49 47 56 55 53 51 50 48 45 44 39 32 30 39 31 37 37 43 44 42 41 47 49 51 51 54 56 56 57 59 59
48 49 49 49 49 49 48 46 46 45 40 34 35 43 50 54 53 50 49 49 45 41 38 34 34 36 37 35 36 34 44 43 38 38 49 47 50 54 54 53 55 56 56 57
48 49 49 49 49 49 44 38 45 47 46 39 33 42 44 49 50 48 47 45 44 42 39 34 39 44 38 26 32 44 47 49 47 44 50 50 52 52 51 52 52 51 51 53
48 49 49 49 49 46 39 36 42 48 47 38 33 31 41 48 47 46 44 44 43 42 39 35 37 39 40 29 29 43 48 48 47 48 47 46 49 49 49 49 46 45 46 45
48 48 49 48 48 47 42 43 49 48 43 39 32 33 36 44 39 38 42 41 40 41 39 37 35 38 35 29 37 43 46 46 47 45 47 49 49 47 45 45 43 38 35 35
48 48 47 45 43 40 42 48 49 47 42 33 29 31 30 40 38 39 38 39 33 37 32 34 36 32 31 36 39 42 42 43 42 42 44 46 44 42 41 40 37 33 31 31
47 45 38 32 41 48 47 41 37 38 39 36 31 33 32 38 34 33 34 33 31 30 34 36 28 31 40 42 42 41 40 38 39 39 39 39 38 37 36 34 33 31 30 29
41 36 35 43 48 41 38 31 32 33 30 33 30 33 32 35 31 33 32 32 31 28 29 30 29 30 34 39 38 38 38 38 37 37 39 38 36 31 29 29 30 30 29 27
41 41 44 43 37 33 31 30 31 27 29 30 30 27 29 33 36 32 32 32 32 28 31 27 28 31 33 33 32 33 35 35 35 35 32 31 31 30 28 27 26 25 25 25
44 40 34 34 29 22 21 22 28 28 32 33 31 30 33 34 34 31 32 30 29 33 31 30 27 30 31 32 31 30 32 31 30 29 30 29 28 28 27 25 25 26 24 25
34 29 19 18 14 21 23 25 28 29 32 30 32 32 32 32 30 31 29 30 32 29 26 22 26 28 29 30 30 29 27 28 27 27 27 26 26 25 25 25 25 24 23 23
26 27 18 21 24 25 26 27 28 28 31 32 33 33 34 31 29 31 30 28 19 22 18 20 26 28 28 27 27 26 26 25 25 25 24 24 25 24 23 24 24 23 21 20
27 23 20 22 21 20 22 22 24 28 28 31 34 32 31 27 25 23 20 19 16 20 23 26 26 25 25 25 25 25 25 25 24 24 24 24 23 22 22 22 22 22 21 20
24 19 22 20 20 18 19 21 22 27 28 28 29 23 21 28 21 20 22 16 21 24 24 26 25 24 24 25 25 25 25 24 24 23 24 23 24 24 22 20 20 21 20 18

GFSNW_sfc_temp_084.txt.gz
Temp
51 50 51 51 51 51 47 40 31 43 47 33 34 30 34 41 40 44 40 40 37 34 35 34 35 36 42 48 47 41 44 38 32 43 55 56 51 49 49 40 35 35 35 41
50 50 50 50 50 50 39 36 36 43 44 28 29 35 36 38 37 38 38 37 40 40 35 31 35 37 46 48 45 41 45 38 31 36 46 50 46 49 50 46 41 37 34 38
50 50 50 50 50 51 42 36 30 36 39 36 33 32 32 32 40 37 39 37 38 36 32 37 33 35 42 45 46 48 46 39 36 31 35 43 41 48 52 47 36 40 42 43
50 50 50 50 50 50 42 36 32 37 25 31 33 34 34 32 33 38 38 35 35 33 29 32 32 37 39 43 47 44 42 33 38 40 40 40 41 45 48 47 46 41 43 45
50 49 50 50 50 50 40 33 33 35 35 35 32 34 32 33 35 36 34 33 36 36 31 34 32 36 36 37 41 40 40 32 35 35 41 41 40 46 48 48 45 45 45 45
50 50 50 50 50 49 38 40 41 37 36 33 32 33 34 34 38 40 42 39 38 35 37 40 42 41 41 40 37 35 36 34 32 30 38 38 34 43 47 47 47 47 41 47
49 49 49 49 50 49 43 43 40 34 30 32 33 36 38 36 38 36 42 43 38 43 49 48 43 41 40 40 39 41 35 34 32 30 33 27 41 50 52 49 50 49 49 50
48 48 49 49 49 50 44 44 40 36 30 35 34 37 38 39 41 39 40 42 47 49 43 35 31 29 31 34 38 38 41 36 31 29 30 34 41 46 45 44 47 54 52 52
48 48 48 49 49 50 46 44 45 40 33 33 40 36 39 35 34 35 37 46 50 45 35 32 27 23 30 31 35 42 41 40 34 31 27 26 39 47 51 51 38 52 51 52
49 49 48 48 49 50 46 44 46 41 34 40 42 36 36 42 38 34 39 40 39 43 32 28 27 27 36 28 28 32 32 34 30 31 30 34 45 46 48 36 37 51 52 53
49 49 49 49 49 49 46 43 46 41 36 39 44 45 41 42 41 33 39 36 36 34 30 29 29 26 30 31 35 33 31 30 30 32 30 27 47 45 40 45 47 50 50 52
48 49 49 49 49 49 48 41 46 47 40 39 46 49 52 51 50 42 40 39 38 36 33 29 29 25 25 31 26 38 31 36 33 35 35 46 47 47 51 52 48 51 53 54
48 48 49 49 49 50 48 44 45 43 38 37 39 40 47 53 54 54 38 39 46 42 42 37 34 28 31 25 28 34 39 43 37 37 44 45 49 52 53 53 53 54 56 55
48 48 49 49 49 49 49 43 45 43 38 32 37 48 44 52 53 52 51 48 47 44 42 38 35 29 38 30 36 34 39 41 40 39 46 49 51 51 52 51 52 54 56 55
48 48 48 49 49 49 47 45 45 45 40 33 35 41 47 50 50 49 49 49 46 42 38 35 34 37 37 33 34 31 41 41 36 37 48 44 47 50 50 50 50 51 51 53
47 48 48 49 49 49 44 38 44 46 45 38 31 40 41 46 48 48 44 46 45 42 39 37 38 41 38 31 28 40 43 45 46 44 48 47 49 50 50 47 44 46 45 46
48 48 48 49 48 46 38 36 41 48 46 37 32 33 39 45 45 45 43 44 43 43 40 37 36 36 39 32 31 40 45 47 47 47 45 44 48 47 43 44 43 42 41 40
48 48 49 49 48 47 41 44 48 48 41 39 30 32 35 42 37 37 40 40 41 40 39 38 33 35 34 32 36 43 47 48 45 45 46 45 46 44 41 42 39 36 34 34
48 49 49 46 41 36 42 48 49 46 41 33 30 31 30 41 38 39 38 40 32 38 34 36 35 30 31 36 38 40 42 42 43 41 42 43 42 40 39 38 35 32 29 30
48 45 36 31 40 47 47 41 38 38 38 36 28 33 32 38 35 34 34 35 32 30 33 35 30 29 38 38 39 38 38 38 38 36 39 38 37 35 33 31 31 30 28 28
40 36 35 43 48 41 38 31 32 32 30 32 33 34 33 36 33 32 32 32 31 25 28 30 30 30 34 36 36 37 37 37 35 35 36 38 37 31 29 29 29 29 28 26
42 41 43 41 38 33 31 29 31 31 28 32 29 32 31 33 37 33 33 29 30 24 30 30 28 30 32 33 32 32 34 35 34 32 30 31 31 30 28 26 25 24 24 23
42 37 32 32 27 25 25 20 26 27 31 32 31 30 32 32 34 32 31 30 28 33 30 26 26 29 31 31 32 30 31 31 30 29 29 29 27 27 26 24 24 24 23 22
32 26 17 19 12 20 22 22 27 28 31 28 31 31 30 31 29 31 27 27 32 28 26 20 23 27 28 28 29 28 26 27 27 26 26 26 25 24 25 24 24 23 21 21
24 24 15 18 23 23 24 25 27 27 30 32 31 32 32 30 29 30 30 27 21 18 15 20 23 26 26 25 26 25 25 24 24 24 24 23 23 23 22 22 23 22 20 19
25 20 18 20 20 18 20 20 22 26 26 31 33 31 29 25 24 22 19 17 13 17 22 24 25 24 24 24 24 24 24 23 23 23 23 22 21 20 20 21 21 20 20 18
23 17 20 19 18 16 17 20 21 25 27 26 28 23 20 26 20 18 20 11 19 22 23 24 24 23 23 24 24 24 23 23 22 22 22 21 22 21 20 17 18 18 18 16

GFSNW_sfc_temp_087.txt.gz
Temp
50 51 50 51 51 51 46 39 30 44 47 32 34 29 34 41 39 44 41 41 39 37 38 36 38 38 43 49 49 42 46 41 36 42 53 56 55 51 52 43 42 42 42 47
50 50 51 51 51 51 40 35 35 44 43 28 28 35 35 39 37 38 39 38 40 41 38 35 37 39 47 48 47 43 46 39 33 40 47 51 47 49 52 50 48 43 38 45
50 50 50 50 50 50 43 35 28 35 38 38 34 31 32 32 40 39 40 38 40 38 36 39 35 36 43 45 45 47 47 40 38 34 37 41 39 43 46 43 41 44 45 50
50 49 50 50 50 50 42 34 31 36 28 30 33 35 34 32 32 39 40 35 37 36 32 34 34 38 41 45 47 46 45 35 39 41 43 43 41 42 43 41 44 42 49 51
49 50 50 50 50 50 39 30 31 35 34 35 33 32 32 33 34 36 34 33 37 37 33 35 34 38 38 39 44 43 43 34 35 34 40 42 40 44 46 45 46 47 51 51
49 50 50 49 50 48 37 39 40 36 34 33 30 32 34 32 38 39 41 39 37 35 38 42 43 44 43 42 38 36 37 34 32 31 39 40 35 43 45 47 51 51 46 54
49 49 49 49 49 48 42 39 38 32 28 31 32 35 36 34 37 35 41 42 39 43 48 46 44 43 42 41 41 42 36 33 32 30 34 26 46 52 52 47 51 56 55 56
48 48 49 49 49 49 42 43 38 34 27 33 34 36 36 38 40 39 39 44 46 48 42 34 31 32 33 37 39 39 41 36 31 28 31 39 44 48 46 41 43 53 55 58
48 48 48 48 49 50 44 43 44 38 31 30 39 36 37 34 35 36 39 47 48 42 36 33 27 26 32 33 36 41 40 39 34 31 27 26 41 47 49 52 39 50 52 55
48 47 48 48 48 49 46 42 45 39 32 37 40 35 36 41 39 36 38 39 37 40 32 29 28 28 37 30 32 32 31 32 28 29 27 36 46 48 50 37 39 47 50 52
48 47 47 48 48 49 46 43 46 40 35 38 42 45 41 42 40 34 37 36 35 33 30 31 31 30 35 35 39 35 34 31 30 31 28 27 49 48 41 44 48 49 51 52
48 49 49 48 47 48 48 41 46 46 37 38 45 47 51 50 48 41 39 39 37 39 34 34 36 31 32 35 30 42 34 40 37 38 38 46 51 50 51 50 49 50 50 53
48 49 49 49 49 48 47 43 44 42 38 37 38 38 47 52 53 53 37 40 43 40 44 37 36 31 36 30 34 39 42 46 40 41 47 48 49 52 53 56 52 55 55 55
48 48 48 48 49 49 48 42 44 42 37 32 37 48 45 51 51 51 51 48 48 46 42 36 35 33 41 35 40 39 45 45 43 42 47 49 52 52 54 53 54 54 56 58
48 48 48 48 49 49 47 44 45 45 40 33 35 42 46 50 49 48 49 47 45 41 38 35 35 38 38 39 38 37 45 44 41 40 49 48 50 53 52 51 50 50 52 55
48 48 48 48 49 49 43 37 43 46 44 38 32 42 42 45 47 46 45 46 44 42 38 36 39 44 40 34 33 42 48 50 49 48 52 51 51 51 53 52 48 46 46 52
47 47 48 48 48 45 38 37 42 47 44 35 32 34 41 44 44 43 43 46 43 41 37 36 39 41 41 34 32 43 47 49 50 51 50 47 50 49 50 48 43 42 42 42
48 48 48 48 48 46 40 45 47 47 41 39 31 32 37 43 37 36 43 39 41 39 38 38 36 39 38 33 40 45 48 50 49 50 50 51 50 48 46 44 42 38 35 35
48 48 48 46 40 35 41 48 48 47 41 33 32 29 30 41 38 39 39 40 32 39 34 35 37 35 31 38 41 43 42 43 44 44 45 46 45 45 43 41 39 35 33 33
49 44 35 32 37 47 47 41 38 37 40 37 32 35 32 38 36 35 34 35 33 31 34 38 34 34 39 38 37 37 37 38 39 39 42 42 42 39 36 35 35 34 32 30
40 33 34 43 48 42 36 31 32 33 30 33 33 35 32 37 33 32 35 32 33 29 32 33 31 31 35 36 36 37 37 38 38 37 36 37 37 37 33 31 31 32 31 28
42 42 43 41 36 33 31 28 31 30 29 33 31 33 35 35 38 34 32 31 31 26 34 30 28 29 31 33 33 34 34 34 35 34 32 33 34 34 32 30 28 26 25 23
43 36 31 31 27 25 23 22 27 28 32 32 33 32 34 34 37 33 33 29 28 35 30 29 26 28 31 30 30 31 32 31 31 30 30 30 28 29 27 25 25 25 23 22
31 28 18 19 13 19 20 23 27 28 31 32 33 31 32 32 31 32 29 31 32 28 27 22 25 26 28 29 29 28 26 27 26 26 26 26 25 24 24 24 23 21 20 20
24 25 14 17 22 21 23 24 27 27 29 33 32 33 34 31 30 30 31 28 23 21 18 23 25 26 26 25 26 25 25 25 24 24 23 22 22 21 21 22 21 21 19 17
24 19 17 18 19 17 19 19 21 25 26 30 34 32 26 25 26 25 19 20 16 19 22 24 25 24 24 24 24 23 24 23 23 23 22 21 21 19 19 19 18 18 17 16
21 16 19 17 16 15 17 19 20 25 27 26 27 20 20 27 21 17 20 15 18 22 23 24 24 23 24 24 24 24 23 22 22 21 21 20 20 19 18 15 16 16 16 15

GFSNW_sfc_temp_090.txt.gz
Temp
50 50 50 50 51 51 48 43 33 51 54 36 38 34 41 43 45 49 46 46 43 42 42 41 42 43 48 55 54 47 51 48 42 46 58 61 59 57 58 48 48 51 50 52
49 50 50 50 51 51 45 37 42 49 49 31 34 40 40 43 43 44 44 42 44 46 43 39 42 44 51 52 51 47 50 45 39 43 51 54 50 52 53 53 53 48 43 52
49 50 49 51 51 51 46 38 31 41 39 42 39 36 37 38 45 44 46 43 45 43 41 46 42 43 48 50 50 47 50 46 42 38 44 50 46 50 53 51 44 48 51 55
49 50 49 50 50 50 44 35 36 42 31 34 35 39 38 35 35 44 46 41 41 41 37 39 40 45 47 51 49 51 50 40 45 46 47 48 48 48 50 49 51 45 51 54
49 49 50 50 49 50 40 34 36 42 40 43 39 36 35 37 41 42 40 39 42 43 38 41 39 44 44 43 49 45 46 40 42 39 46 47 45 50 52 52 53 55 55 54
49 49 49 49 49 49 37 39 46 42 40 39 34 37 38 39 44 45 46 45 43 41 43 47 48 49 49 48 44 41 41 39 34 35 45 44 38 46 49 53 57 56 50 59
49 49 49 49 49 48 45 46 43 37 32 39 39 39 38 38 42 40 46 47 43 47 52 50 49 47 47 47 47 48 40 36 36 35 37 27 49 58 58 54 57 59 57 60
49 49 49 49 49 49 45 47 44 38 31 40 39 40 40 43 45 41 43 48 51 53 44 36 34 35 37 41 46 47 47 41 33 31 35 42 47 53 53 52 53 55 54 57
48 48 48 49 49 49 46 47 50 43 35 37 44 41 43 39 39 39 43 52 53 45 37 34 30 29 37 37 42 49 47 45 37 35 29 28 46 55 59 58 44 55 56 56
48 48 48 48 49 49 47 44 50 43 34 43 44 40 40 47 43 38 44 45 39 41 33 32 32 34 42 35 36 33 34 33 30 32 30 39 52 57 57 39 44 55 57 56
48 48 48 48 48 48 46 42 47 44 37 43 47 46 41 43 45 39 43 39 38 35 31 35 36 36 41 40 44 40 36 33 32 34 29 28 55 53 42 51 57 58 59 55
48 49 48 48 48 48 47 40 45 46 40 43 51 51 54 51 51 46 45 41 38 42 35 42 43 37 41 41 35 51 38 46 42 43 43 54 55 54 58 60 57 57 58 59
48 48 48 48 48 48 47 42 44 42 37 37 39 39 51 55 54 55 40 42 47 41 45 42 44 37 46 36 39 45 51 55 46 46 53 56 58 60 60 60 59 60 59 57
48 48 48 48 48 48 47 42 45 42 38 32 37 50 47 55 53 52 49 49 50 48 42 36 36 36 48 43 46 46 51 53 49 49 54 56 58 60 61 60 59 60 58 55
48 48 48 49 49 49 46 44 45 46 41 35 40 50 51 52 52 50 49 45 43 40 37 35 35 43 42 45 45 44 53 50 46 45 55 55 56 61 60 57 57 55 52 53
47 48 48 48 49 49 43 36 43 46 46 38 33 42 45 51 50 48 48 46 42 41 38 36 42 48 44 36 38 51 55 58 58 54 60 59 60 60 61 56 55 50 50 51
47 48 48 48 48 45 38 38 44 47 45 37 34 38 42 49 47 46 44 46 42 40 38 37 39 45 44 36 36 50 54 57 59 60 59 54 58 57 58 54 50 48 45 45
47 48 48 48 48 46 40 48 47 48 40 38 33 35 37 46 38 37 44 38 39 39 37 39 39 45 40 35 47 51 54 57 57 57 57 57 58 57 57 53 48 46 44 42
47 48 48 45 42 35 41 47 48 50 44 35 34 33 30 45 39 41 40 40 33 39 35 37 43 41 34 43 48 51 50 46 47 49 52 55 54 54 51 50 46 43 40 40
48 43 34 32 37 47 46 41 37 38 40 41 36 42 33 42 39 36 36 37 35 32 36 44 36 39 48 45 44 44 43 44 46 42 44 46 45 49 47 45 46 43 42 38
39 34 35 42 48 44 38 32 34 35 32 37 40 40 35 39 36 35 38 34 35 32 37 34 34 34 38 39 40 42 43 43 44 44 43 41 40 41 44 42 40 40 38 34
42 42 44 42 38 35 33 32 33 33 33 36 34 37 39 37 42 37 35 34 34 30 39 33 32 29 33 35 35 37 39 39 39 38 37 37 36 39 40 38 35 33 30 26
45 39 34 35 29 30 30 26 30 31 34 35 35 34 38 34 36 36 33 31 32 40 31 31 29 32 33 33 34 33 36 36 35 34 33 32 31 32 31 27 26 26 25 25
37 31 23 26 24 27 28 30 31 31 35 37 37 35 39 37 35 35 31 35 36 30 29 26 28 28 30 31 32 31 29 29 29 28 29 27 26 25 25 24 24 22 21 21
29 31 21 22 26 27 27 28 30 30 31 35 35 38 41 34 32 34 33 30 27 27 25 26 27 28 29 28 28 28 27 27 26 26 24 24 23 22 21 21 22 20 19 19
28 24 22 24 26 23 23 22 24 27 28 34 36 34 31 29 31 27 24 25 23 24 26 27 29 27 27 27 27 26 26 26 25 25 24 23 21 20 19 20 19 19 19 18
24 20 24 23 22 21 23 24 24 28 29 30 32 27 24 32 25 21 25 22 24 25 27 28 26 26 26 26 26 25 25 24 23 23 22 21 21 20 19 16 17 17 17 16

GFSNW_sfc_temp_093.txt.gz
Temp
50 51 51 51 50 51 49 43 35 56 59 40 42 39 46 50 50 54 51 51 49 47 48 46 46 47 52 57 57 53 56 52 48 53 62 63 61 60 59 49 49 55 52 53
50 50 51 50 51 50 48 39 44 55 52 34 38 44 46 49 48 48 49 48 51 51 46 42 47 48 55 56 55 52 54 49 43 46 55 59 56 60 61 60 57 50 46 51
50 51 50 50 50 51 47 40 33 44 44 47 42 40 42 41 50 48 51 49 52 47 45 50 45 47 52 53 54 48 51 51 47 42 47 53 48 54 57 55 47 50 53 57
50 50 50 50 50 50 47 37 37 46 34 37 40 42 40 41 40 47 50 46 46 45 41 44 44 49 50 53 50 54 52 43 49 50 52 53 52 52 54 52 53 47 54 56
49 49 50 50 50 49 42 35 38 45 43 45 42 40 39 38 44 46 42 43 48 48 43 45 44 48 49 48 53 51 50 43 47 44 49 50 48 53 55 56 56 57 57 56
50 50 49 49 49 49 39 41 50 41 40 42 38 40 42 42 45 47 50 47 47 45 48 53 54 53 51 51 48 44 44 44 40 37 49 48 41 49 53 55 58 58 52 60
49 49 49 49 49 49 44 42 48 39 33 38 41 43 40 42 45 42 48 51 45 51 56 55 53 51 50 49 49 50 40 42 40 36 40 29 50 61 60 55 58 62 62 65
49 49 49 48 49 49 48 50 42 40 34 42 42 44 42 44 45 44 45 48 55 55 49 40 38 39 39 44 49 49 49 39 34 33 37 44 49 55 54 53 53 59 59 62
48 48 49 49 49 49 49 49 51 42 36 39 46 43 45 40 41 44 47 55 57 51 39 36 31 31 39 38 44 52 49 46 37 36 31 30 50 58 62 59 45 58 59 58
48 48 48 48 49 49 48 48 50 42 35 46 48 43 43 50 47 42 45 49 47 48 35 32 33 36 44 36 37 38 37 35 32 35 33 41 56 59 61 41 43 58 59 58
48 48 48 48 48 49 47 46 51 44 39 46 50 51 47 49 48 40 45 42 43 37 32 37 39 38 43 44 47 42 38 34 32 36 31 30 59 56 47 53 59 60 60 60
48 48 47 47 48 48 48 40 49 52 41 46 54 55 57 54 54 46 43 42 39 46 40 44 44 39 43 44 37 51 36 46 42 44 43 56 60 58 62 63 60 60 60 62
48 47 48 48 48 48 47 42 44 44 38 40 45 45 55 60 58 56 37 47 47 44 47 42 39 38 48 38 43 47 54 58 49 49 55 58 61 64 65 65 63 63 62 62
47 48 49 48 48 48 47 42 44 42 39 33 42 56 51 59 59 57 55 52 52 47 45 38 37 38 51 44 48 46 53 55 50 51 56 59 62 63 64 64 64 63 61 59
48 48 49 49 48 48 46 45 44 46 43 37 41 52 55 57 55 54 55 51 46 39 36 35 36 46 45 47 46 45 55 52 48 47 57 56 59 63 64 62 62 61 56 54
47 48 48 48 48 47 42 34 42 46 46 38 33 45 45 52 54 52 50 47 44 40 37 36 43 47 44 39 40 53 57 60 60 55 62 62 62 63 65 62 61 56 54 54
47 48 48 48 48 45 38 40 45 47 46 36 36 39 46 49 48 48 47 47 41 40 37 38 40 40 43 40 38 52 57 59 61 63 62 58 61 59 63 63 59 53 50 48
47 48 48 48 48 46 41 47 47 48 40 37 33 37 36 44 37 38 45 39 39 38 36 38 40 45 44 36 48 53 56 59 59 60 58 57 60 61 62 60 56 53 49 46
47 47 48 45 41 37 45 47 48 49 43 35 34 35 32 45 39 40 39 40 33 39 35 38 42 41 36 46 49 52 49 48 50 53 55 56 56 55 57 56 55 51 49 46
47 44 33 32 38 47 46 42 38 38 40 43 37 46 35 43 39 36 37 38 36 32 36 46 37 40 50 51 49 49 47 48 49 46 47 48 47 48 49 50 53 51 49 46
40 34 35 42 49 44 37 33 33 35 33 40 45 44 39 45 36 35 39 35 39 33 38 36 37 40 43 43 43 44 44 45 46 46 46 47 46 43 43 44 47 46 44 40
43 42 44 43 39 35 33 33 36 36 35 40 38 42 44 42 47 41 39 36 35 31 42 34 34 31 36 39 38 39 41 41 42 42 40 39 38 38 38 37 33 32 30 29
48 42 36 36 33 30 30 27 32 33 38 38 40 36 38 39 40 39 36 30 33 40 33 33 30 33 35 35 36 35 38 37 35 35 36 34 31 31 31 28 28 28 26 25
42 35 26 30 28 31 30 31 34 33 37 39 41 36 38 37 35 35 32 35 38 31 30 27 28 29 31 33 32 31 30 30 29 29 29 28 28 26 26 25 25 24 23 23
33 35 25 26 29 30 30 31 33 31 33 36 38 42 42 36 33 36 34 31 29 29 26 27 28 29 30 29 29 28 28 28 28 28 26 25 24 24 22 22 22 20 19 18
31 28 26 30 30 28 28 27 28 32 31 35 36 36 33 30 33 30 27 28 26 25 26 28 30 28 28 28 28 27 27 28 28 27 26 24 23 22 22 21 21 20 20 19
28 24 28 28 27 26 26 27 28 32 31 32 34 30 27 34 29 25 27 23 25 27 28 29 27 26 26 27 28 27 27 26 26 25 24 23 23 23 21 19 19 19 18 18

GFSNW_sfc_temp_096.txt.gz
Temp
51 51 51 51 51 51 49 39 34 55 53 36 41 35 43 48 51 56 51 50 49 47 48 47 48 49 49 58 57 51 55 49 45 50 63 65 60 57 56 46 45 51 48 49
50 50 50 51 51 51 46 36 42 53 50 31 35 43 44 49 48 50 49 47 50 52 47 42 48 51 55 56 55 47 50 48 41 46 55 60 55 58 60 58 55 47 40 46
51 51 50 50 50 51 45 37 33 44 40 45 40 35 40 42 52 49 50 49 51 48 46 50 45 48 53 55 54 50 51 47 45 39 45 52 50 55 57 54 45 48 49 54
50 50 51 50 50 49 44 37 35 43 32 36 40 42 39 38 41 49 51 46 46 45 39 43 43 49 51 54 51 52 50 41 47 49 52 52 51 51 52 50 52 45 51 54
50 50 50 50 50 49 39 34 38 45 42 44 38 40 39 39 41 45 43 42 46 47 42 44 41 48 49 47 53 50 52 41 45 42 49 50 47 51 52 53 54 54 54 54
50 50 50 50 49 48 39 44 48 40 38 35 36 38 40 42 46 46 47 47 44 43 47 52 54 54 52 50 47 46 45 42 41 35 46 47 40 47 51 53 56 55 48 57
49 49 49 50 49 49 46 44 46 36 32 37 37 41 43 41 44 41 46 50 43 48 55 56 54 52 51 50 49 51 42 41 41 34 39 28 48 60 59 55 57 59 59 62
49 49 49 49 49 49 47 48 41 37 31 40 42 42 42 43 45 44 45 48 52 51 50 40 38 39 40 43 48 48 49 42 34 31 33 42 48 54 54 50 51 57 56 58
48 48 48 48 49 49 47 47 47 40 33 36 45 41 43 39 40 42 47 53 56 50 42 35 30 30 37 37 41 49 49 46 37 35 29 29 47 57 61 58 43 55 57 55
48 48 48 48 49 49 47 47 49 41 34 43 44 39 40 47 44 39 44 47 46 50 36 32 31 33 40 32 36 36 37 37 32 32 31 39 53 58 60 40 41 56 57 56
48 48 48 48 48 49 46 45 49 42 38 43 48 49 45 47 46 39 46 41 44 37 32 34 36 35 40 40 40 41 37 32 31 34 31 29 58 57 46 52 58 59 60 57
47 47 48 48 48 48 48 40 49 49 38 44 52 53 55 54 53 46 44 39 33 45 40 41 42 37 40 42 36 49 34 43 40 42 40 54 58 56 60 62 60 60 59 61
47 47 48 48 48 48 47 43 46 43 36 39 43 45 54 58 57 58 37 43 41 42 42 39 38 33 40 35 40 45 47 53 41 40 49 54 56 59 60 64 63 63 62 60
47 47 48 48 48 48 47 42 44 43 38 32 40 56 50 58 58 57 55 49 45 42 43 35 36 34 45 38 43 42 49 47 46 44 55 57 60 60 60 61 63 63 61 59
47 47 48 47 48 48 47 45 44 47 42 36 40 51 56 58 56 53 55 52 48 44 37 34 34 43 43 46 45 42 52 49 44 42 54 53 55 60 62 61 61 58 56 55
47 47 48 49 48 48 41 34 43 46 49 37 33 49 48 53 55 52 50 50 47 44 37 35 41 49 42 36 37 51 53 58 57 52 60 60 61 63 63 60 60 56 54 51
47 47 48 49 48 43 37 38 44 46 46 34 34 38 45 49 52 51 49 50 44 42 38 35 39 43 42 37 36 47 48 50 56 61 59 56 57 55 60 61 58 55 52 47
47 47 48 48 47 45 40 45 47 47 39 37 32 36 38 45 37 38 47 39 40 38 37 39 40 43 40 34 47 52 54 56 56 54 56 56 58 59 57 59 59 54 53 48
47 48 48 45 41 36 42 47 47 47 40 34 33 33 32 41 37 38 40 39 33 38 33 36 39 37 35 44 46 47 47 47 47 51 53 54 51 52 52 52 51 51 51 48
48 44 34 32 38 47 46 41 37 37 38 39 33 43 34 39 37 35 35 36 34 31 35 43 36 37 47 43 43 43 45 46 47 43 42 43 44 45 45 46 47 47 49 43
40 35 35 43 48 42 35 32 33 34 32 39 42 42 36 42 35 33 37 34 36 31 36 36 35 34 34 40 40 41 43 43 43 43 43 43 40 38 38 39 39 38 38 34
45 43 45 44 38 34 32 31 34 35 35 43 40 41 43 42 45 36 37 34 34 30 41 35 32 29 33 36 35 36 38 38 38 39 37 36 35 33 33 31 31 29 28 26
47 43 37 36 34 30 29 27 32 33 40 41 41 36 38 42 44 40 37 31 32 38 33 30 27 29 32 32 33 32 35 33 33 32 33 32 30 29 29 28 27 27 25 24
39 34 28 31 30 31 30 30 33 34 39 40 41 38 39 37 34 35 30 36 38 31 29 24 25 28 30 31 31 29 28 28 28 27 28 27 26 25 25 25 25 24 23 22
34 36 26 27 30 31 31 33 33 32 35 36 39 41 40 35 32 33 33 30 29 27 23 25 27 28 28 27 27 26 26 27 27 26 25 23 23 22 21 22 22 21 19 18
32 29 28 31 30 28 29 30 30 32 32 34 36 35 33 31 34 31 27 28 22 23 26 27 28 26 27 27 27 27 27 26 26 25 25 23 22 21 20 21 20 20 20 19
29 25 29 30 29 26 28 30 29 32 31 32 33 30 28 34 29 25 27 22 24 27 27 28 27 25 26 27 27 26 26 25 24 24 23 22 22 22 20 17 18 18 18 17

GFSNW_sfc_temp_102.txt.gz
Temp
51 51 51 51 51 50 44 37 28 40 44 32 31 30 32 41 40 43 40 41 39 38 39 38 37 34 36 45 43 36 44 40 35 45 49 51 48 47 48 36 35 38 35 38
51 51 50 50 51 49 36 33 30 39 39 22 28 33 36 39 37 39 39 39 41 43 39 34 39 38 46 48 42 35 41 35 31 40 45 46 44 47 50 46 43 36 33 37
50 50 50 50 50 50 40 33 26 30 37 35 30 30 31 33 41 38 42 41 43 38 35 41 36 40 45 46 46 44 44 37 34 30 36 41 38 43 46 43 34 37 40 45
50 50 50 50 50 50 39 34 28 30 19 26 31 33 33 31 32 39 40 37 38 36 31 33 33 39 41 46 47 47 41 35 38 40 43 45 41 43 42 38 38 34 42 45
50 50 50 50 50 49 35 31 31 31 29 33 31 31 32 31 32 35 33 34 38 37 32 34 31 36 36 37 44 41 43 35 37 33 42 43 41 44 44 44 41 42 45 45
50 50 50 50 50 46 36 38 37 34 30 28 24 28 33 34 35 37 41 39 35 33 36 38 39 40 40 39 40 37 37 35 32 29 38 39 31 39 44 46 47 45 40 45
49 49 49 49 49 46 36 35 37 32 23 28 29 33 35 35 36 33 39 40 36 43 45 44 43 41 41 41 42 43 36 34 30 26 32 23 41 51 49 45 46 47 47 49
49 49 49 48 49 49 37 36 36 32 21 29 31 34 34 35 37 35 37 41 44 42 40 31 31 30 32 36 40 39 40 33 25 23 24 34 42 46 44 43 41 48 46 49
48 48 48 48 48 49 38 36 38 37 30 26 36 31 34 29 28 31 36 43 43 41 32 26 25 21 30 30 34 42 39 36 28 25 23 20 39 46 50 49 34 49 49 48
47 48 48 48 48 48 39 36 39 36 30 32 34 29 30 37 34 29 33 36 35 41 28 26 23 25 36 26 28 28 28 26 26 23 22 31 44 50 51 34 35 49 50 48
48 48 48 48 48 48 42 36 39 37 31 33 38 39 33 34 33 29 33 31 33 30 28 28 27 24 33 31 34 32 29 24 21 25 22 23 49 49 40 44 46 48 48 48
46 47 48 48 48 48 46 38 44 41 35 32 40 41 42 41 40 34 35 33 32 35 30 31 31 28 31 31 27 34 28 33 30 32 32 45 48 47 51 52 49 46 47 48
47 47 48 48 48 48 46 41 42 40 35 35 34 34 43 46 44 44 31 33 38 33 36 32 33 29 34 27 29 31 37 39 37 36 43 43 44 49 53 54 48 48 49 47
47 47 47 47 48 48 48 40 43 40 36 28 30 43 38 45 45 43 44 41 39 39 37 34 32 29 39 32 34 32 36 39 38 38 42 45 47 49 48 50 51 48 45 44
46 47 47 47 47 48 45 42 42 44 37 28 31 39 44 46 43 42 43 40 38 36 34 32 30 35 35 36 36 33 40 35 34 33 41 40 44 48 51 48 47 46 43 39
46 47 47 47 47 48 41 34 43 45 43 34 27 36 39 43 43 41 40 40 39 38 34 32 35 39 36 31 30 41 45 44 43 38 44 44 48 48 50 46 45 43 41 40
46 47 47 47 47 44 36 36 40 46 43 32 29 27 36 41 42 38 37 39 35 35 34 34 33 33 36 31 28 40 43 44 43 43 45 40 42 41 45 46 43 40 37 36
46 46 47 47 47 46 39 43 46 45 35 34 29 25 28 39 32 31 35 33 35 36 32 33 34 33 34 30 36 39 43 45 43 42 43 42 43 42 40 41 42 40 35 32
46 46 47 44 39 34 39 47 46 44 39 31 30 22 22 37 34 36 36 37 31 37 32 30 32 29 30 35 35 34 34 35 37 40 38 38 35 35 37 37 35 34 33 30
46 43 34 30 35 46 45 40 36 36 36 36 29 30 27 36 33 32 32 34 29 28 32 35 31 31 33 33 33 34 34 34 34 32 30 31 30 31 33 34 35 35 33 30
39 33 34 39 46 40 35 30 30 32 30 33 33 33 32 37 32 32 33 30 32 26 28 30 29 28 28 31 30 32 33 33 32 32 31 30 28 28 30 30 30 30 30 28
41 41 43 41 37 33 28 28 30 29 26 29 28 30 35 35 39 32 32 30 31 26 34 26 24 23 27 28 28 28 29 30 31 30 29 28 26 26 27 26 26 25 25 24
44 40 34 32 31 24 21 22 24 21 25 29 27 27 32 34 36 32 32 28 27 34 29 20 21 25 26 26 27 27 29 29 27 26 26 26 24 23 23 22 23 24 23 23
35 31 27 27 24 24 23 27 30 31 32 28 28 27 33 32 30 27 28 29 31 20 22 17 21 24 25 26 26 25 23 25 23 21 22 21 20 18 18 17 19 18 19 19
30 28 21 24 25 27 28 31 30 30 32 32 33 31 31 31 28 31 29 27 20 19 15 19 22 24 25 23 22 21 20 19 18 15 13 13 14 14 13 16 16 16 15 15
28 23 25 27 24 23 26 27 27 30 29 32 32 28 28 24 30 26 21 20 11 15 18 21 22 19 20 18 18 16 13 13 12 13 14 12 10 10 10 12 12 12 12 11
25 19 24 23 23 21 23 26 26 29 29 31 28 26 23 30 20 18 20 10 16 21 22 21 18 16 15 17 16 15 15 13 10 12 13 12 13 14 12 9 11 13 13 12

GFSNW_sfc_temp_105.txt.gz
Temp
51 51 51 51 50 50 42 35 19 38 41 27 30 27 33 38 37 42 38 37 37 31 36 33 31 32 36 43 43 36 37 34 30 40 46 47 43 44 45 34 33 34 33 34
50 50 50 50 50 49 35 32 32 38 38 23 22 33 32 38 36 37 37 36 39 37 36 32 37 38 47 46 41 37 38 32 27 33 39 44 40 43 45 43 40 35 30 32
50 50 50 50 50 49 37 32 25 27 37 35 28 28 30 31 40 37 38 38 40 36 35 40 35 38 45 46 42 43 42 34 29 25 30 41 38 41 42 41 33 33 34 39
50 50 50 50 50 49 38 32 29 30 17 26 29 32 31 30 29 37 38 35 36 33 30 32 32 37 39 44 45 41 37 29 32 36 41 41 39 39 41 38 36 33 38 41
49 49 50 50 50 48 35 29 27 34 28 30 29 30 28 30 32 33 33 31 35 34 30 32 29 33 33 34 39 38 41 30 32 31 39 41 38 40 43 43 41 40 40 43
49 49 50 50 50 46 35 36 39 32 29 28 23 27 31 31 34 37 39 37 33 32 35 38 39 38 38 37 34 35 36 33 30 27 36 36 32 38 42 42 44 43 36 43
49 49 49 49 49 46 35 34 35 30 24 28 29 31 32 32 33 31 37 37 33 40 44 41 40 37 37 36 37 39 35 34 32 28 32 22 39 48 47 43 44 47 46 47
48 49 49 49 48 48 36 35 36 32 21 30 30 31 31 33 34 33 35 38 41 40 37 30 30 29 31 34 37 36 38 33 28 26 27 33 39 43 41 40 40 46 46 46
48 48 48 48 49 48 38 35 37 36 28 27 34 30 31 28 27 29 33 41 41 39 31 24 20 20 28 28 32 39 37 35 30 26 22 17 35 45 48 47 33 48 47 45
48 48 48 48 48 48 39 35 38 35 29 31 32 28 28 33 30 27 30 33 33 36 26 23 22 23 33 21 25 28 26 26 25 23 20 29 41 47 48 33 36 47 48 47
48 48 48 48 48 48 40 35 39 36 31 31 36 37 31 31 32 25 30 29 30 29 25 28 27 23 29 27 31 30 27 23 18 23 21 21 46 46 38 42 47 49 47 46
47 47 47 47 48 48 45 36 39 40 35 31 38 39 41 39 38 32 32 30 28 34 29 30 28 24 30 30 25 33 27 31 29 30 29 41 43 43 47 48 46 45 46 47
47 46 47 47 48 48 45 39 40 39 35 34 34 34 42 43 43 43 31 31 36 34 36 31 30 27 30 26 28 31 34 37 32 34 38 40 43 46 47 48 47 46 46 45
46 46 47 47 48 48 47 39 39 38 36 28 29 41 36 43 43 41 42 39 37 36 36 31 29 27 36 29 33 32 34 34 36 36 40 42 44 44 46 47 46 43 42 41
46 47 47 47 47 48 44 39 40 42 36 27 29 38 43 45 40 39 39 37 34 33 33 32 29 32 33 34 34 33 37 34 32 32 38 40 42 43 48 46 44 42 40 37
46 46 47 47 47 47 40 34 41 42 42 34 25 37 38 40 41 38 36 38 36 37 33 31 34 38 34 29 30 40 43 42 38 34 41 41 41 43 46 42 41 40 37 37
46 46 47 47 47 43 36 34 40 45 43 32 28 26 34 38 38 35 34 36 34 34 34 30 31 33 35 30 28 36 40 42 41 41 38 35 36 34 39 41 39 37 34 33
46 46 46 46 47 45 39 42 46 44 36 34 29 25 27 37 30 31 34 31 33 32 33 34 31 32 31 29 36 35 34 40 38 39 40 38 39 39 38 38 38 35 32 30
46 46 47 43 40 35 38 47 46 43 38 30 30 21 21 36 34 35 35 32 29 34 31 31 31 29 28 32 32 30 31 31 32 38 33 35 32 32 34 35 33 32 31 29
45 43 34 31 36 45 46 40 34 33 34 36 29 28 25 33 33 32 32 33 29 27 31 34 30 30 31 31 30 30 31 31 32 30 28 28 27 28 30 32 32 32 32 30
38 32 33 39 46 40 35 30 30 31 28 32 33 30 29 36 31 31 32 30 29 25 27 29 29 26 27 29 28 29 30 32 30 30 30 27 26 26 28 28 28 28 28 27
40 40 42 41 37 32 28 27 30 29 26 27 29 32 33 35 37 32 32 29 30 25 33 28 23 21 25 27 27 27 28 28 27 27 25 27 25 24 25 24 23 24 25 23
43 38 34 31 30 24 20 20 26 27 25 26 27 32 31 34 36 32 31 28 28 33 25 19 21 24 26 25 26 25 27 27 25 24 24 23 22 21 20 18 19 20 19 21
35 31 27 25 21 25 22 25 27 28 32 31 25 31 32 32 31 31 23 29 31 26 20 14 19 23 25 25 25 23 20 22 21 19 20 19 18 16 16 15 17 15 16 16
29 29 21 18 22 28 28 31 30 30 31 32 32 30 31 28 27 28 28 26 16 16 14 16 21 24 25 22 22 20 19 16 14 11 12 10 11 12 11 13 14 15 14 13
27 23 23 25 23 22 25 26 26 30 29 31 33 30 28 24 29 25 17 19 13 15 18 21 22 21 21 20 20 15 12 13 11 11 12 10 9 8 8 10 10 10 10 10
25 18 22 19 22 19 22 24 25 29 28 30 29 26 22 27 20 17 18 9 13 17 20 20 20 18 14 12 16 16 14 10 9 8 9 8 9 10 10 6 9 10 10 10

GFSNW_sfc_temp_108.txt.gz
Temp
50 50 50 50 50 49 42 31 18 40 39 24 29 26 31 38 35 40 36 35 34 32 31 29 29 28 33 44 40 34 36 32 30 36 42 43 41 39 42 32 32 32 32 33
50 50 50 50 50 49 34 28 29 37 38 22 20 29 33 35 34 35 35 33 37 38 33 27 35 33 43 44 41 33 35 31 27 29 36 40 37 40 41 42 36 32 28 32
50 50 50 50 50 48 35 29 19 27 36 35 29 20 26 29 38 35 37 35 37 33 32 38 33 35 42 43 42 44 39 33 29 24 28 36 31 37 39 38 32 35 32 35
50 50 50 50 50 49 37 29 21 31 21 23 28 28 30 28 27 36 36 33 33 30 27 31 31 36 38 42 44 42 38 29 32 35 38 39 38 34 37 35 35 34 34 36
50 50 49 49 49 48 34 28 24 33 30 30 28 27 28 29 30 32 31 31 32 33 29 31 29 34 34 33 39 38 39 27 32 30 38 38 34 36 34 39 38 36 36 36
49 49 49 49 49 45 36 32 33 30 28 27 23 26 29 28 31 35 37 35 31 30 33 35 37 38 38 38 35 33 34 30 27 27 33 33 27 34 38 40 43 39 34 40
49 49 49 48 49 45 34 32 33 29 22 27 29 30 30 29 31 29 35 36 32 37 42 39 38 35 36 35 35 37 31 31 29 28 30 22 38 44 43 41 43 43 44 45
49 49 48 48 49 47 35 33 33 31 21 29 30 30 30 31 32 30 33 36 39 39 34 29 29 29 31 33 34 34 35 32 26 24 27 32 35 43 41 38 39 44 45 43
48 48 48 48 49 48 39 35 36 35 25 25 32 29 31 27 26 29 32 38 39 36 29 23 20 19 27 28 31 36 34 33 28 27 24 20 35 43 46 44 31 45 46 46
48 48 47 48 48 48 39 37 38 36 27 30 32 27 28 31 29 26 29 31 32 34 24 22 21 23 31 21 23 27 26 25 25 24 23 31 39 44 46 31 33 45 48 45
48 48 48 48 48 48 39 36 39 36 30 30 34 35 30 30 29 24 29 27 29 29 22 24 26 24 27 26 27 27 27 24 19 22 19 21 43 44 36 40 43 46 47 45
47 48 48 47 48 48 43 32 38 41 34 30 36 38 40 38 38 30 30 28 26 31 26 27 28 25 29 28 23 33 23 31 28 29 28 39 41 41 45 46 45 43 45 45
47 47 47 47 48 48 44 38 39 38 34 34 32 33 40 41 41 42 31 30 34 31 36 26 28 24 28 24 27 30 33 35 31 31 36 37 39 42 44 45 43 43 44 43
47 47 47 47 47 47 44 39 39 38 34 27 29 40 35 41 41 40 40 36 36 37 36 31 28 27 34 27 32 30 34 33 33 33 37 39 41 41 43 44 43 41 41 41
47 47 46 47 47 47 42 38 39 40 35 27 29 36 42 43 39 37 38 36 33 30 29 31 29 31 31 33 33 31 36 33 31 31 37 38 37 41 44 41 40 41 38 35
46 47 46 46 46 47 40 33 39 41 41 33 24 33 36 38 38 35 33 34 32 31 29 29 34 38 34 27 27 35 36 34 36 33 37 36 37 37 41 38 38 37 36 35
46 46 47 47 47 40 35 34 39 44 42 32 24 27 33 35 35 33 32 34 35 34 30 28 30 32 34 27 27 33 35 36 35 36 35 33 33 31 34 36 37 35 33 31
46 46 46 47 46 44 38 42 45 44 37 34 24 26 28 36 28 27 32 31 33 34 30 33 32 31 29 27 33 32 33 35 34 34 34 32 33 33 35 36 37 33 31 30
46 46 46 43 39 34 38 47 46 42 36 30 30 21 18 37 34 35 34 33 28 32 30 29 30 29 26 30 30 29 29 29 29 36 32 32 30 30 32 33 32 33 31 30
46 41 34 30 35 45 45 38 34 33 32 34 26 27 22 31 33 31 31 33 24 25 30 32 30 27 29 29 29 29 29 30 29 28 27 26 25 26 28 28 29 29 29 29
37 32 32 38 45 40 35 30 29 31 28 31 29 29 25 33 28 30 32 30 29 24 26 28 27 25 25 27 27 28 28 28 26 27 27 27 25 24 25 25 26 27 27 25
37 39 42 41 36 33 28 27 29 29 26 26 29 31 31 33 38 31 32 28 28 24 31 27 21 20 25 26 25 26 27 27 26 26 24 24 24 22 23 21 21 21 23 23
41 38 33 32 30 25 20 19 25 26 25 24 28 30 29 33 36 32 31 27 26 33 25 18 19 24 25 24 25 25 26 25 24 22 22 21 20 18 18 16 17 18 17 19
34 30 25 25 22 24 22 26 26 27 32 31 29 32 32 32 31 31 26 29 29 25 16 15 18 22 23 24 25 23 20 19 19 15 17 16 16 13 13 13 15 15 14 13
29 28 19 24 22 22 24 31 29 29 31 32 31 31 30 29 29 29 27 25 15 15 14 16 21 24 23 21 22 18 16 12 11 9 9 7 8 9 8 11 11 12 10 10
27 23 23 25 20 18 22 25 26 29 28 30 32 30 27 25 27 25 18 18 14 13 17 21 22 21 21 20 19 15 13 13 9 10 11 9 7 6 7 8 9 9 9 9
24 15 20 15 14 14 19 21 22 27 26 29 28 25 20 23 19 17 16 9 14 17 18 18 17 18 19 19 19 17 16 12 10 8 9 6 8 9 9 5 6 8 8 7

GFSNW_sfc_temp_111.txt.gz
Temp
51 50 50 50 50 48 42 33 24 42 43 28 31 27 30 38 36 40 37 36 33 30 32 30 30 29 34 44 42 33 36 33 31 41 43 45 49 46 47 40 36 41 42 42
50 50 50 50 50 48 36 30 32 39 41 22 25 31 32 35 34 36 34 34 35 37 32 29 34 36 44 45 42 35 34 32 28 35 40 43 37 43 45 47 43 40 36 41
50 50 50 50 50 48 37 31 22 31 36 35 30 25 27 30 38 36 37 35 36 33 32 37 33 35 42 43 43 45 37 32 29 28 32 37 34 37 40 41 38 41 42 42
50 50 50 50 50 48 37 28 25 32 22 27 30 30 31 29 29 36 37 34 34 31 28 31 32 36 36 41 44 42 39 28 31 34 39 40 38 36 36 36 40 39 45 44
50 50 50 49 50 48 35 27 28 33 32 32 29 29 29 29 30 31 31 31 33 33 29 31 28 32 33 33 40 37 40 32 33 30 37 39 36 38 38 40 41 41 42 42
50 50 50 49 49 45 37 34 36 32 29 29 27 28 31 30 32 35 36 34 32 32 35 37 37 38 37 36 33 33 34 32 32 29 36 35 32 36 38 40 42 43 40 45
50 50 49 49 49 44 36 35 34 28 23 29 30 31 32 31 32 29 34 36 32 39 43 40 41 38 36 36 36 37 33 32 33 29 33 23 40 46 46 40 41 47 46 47
49 49 49 48 48 46 37 35 34 31 24 31 31 31 32 33 34 32 33 37 41 41 37 32 31 33 35 37 37 35 37 34 29 27 28 35 39 43 42 39 40 46 46 47
49 49 48 48 48 48 38 36 37 36 27 28 34 31 32 29 29 31 34 40 41 39 33 28 24 23 29 30 34 38 36 36 31 30 25 23 37 45 49 47 37 47 48 46
48 48 48 48 48 48 39 39 40 37 29 34 34 30 30 34 32 29 32 34 35 37 28 27 26 26 33 25 26 29 30 30 27 28 26 33 43 46 48 35 37 47 47 46
48 48 48 48 48 48 41 40 39 37 31 33 35 36 33 34 33 28 32 31 33 31 27 26 27 26 30 28 31 30 28 27 26 29 25 23 45 46 38 42 46 49 49 48
48 48 48 48 48 48 43 35 39 43 34 33 37 39 41 41 40 35 34 32 30 34 29 31 30 27 30 30 24 33 27 31 29 32 33 40 44 42 46 46 46 46 47 47
48 47 48 48 48 48 43 36 38 38 34 34 35 34 41 42 42 44 31 35 38 33 37 31 29 24 31 26 28 29 34 37 32 32 39 40 40 45 44 45 43 45 46 45
47 47 47 48 47 47 44 37 39 38 34 28 32 41 37 43 42 41 42 40 39 39 37 32 30 27 36 30 32 29 32 34 32 33 39 39 37 41 44 43 42 42 41 41
47 47 47 47 47 47 42 38 39 41 35 28 31 37 42 44 40 38 39 38 37 35 31 30 29 35 33 34 33 31 35 31 28 29 34 35 32 36 39 38 39 40 38 36
47 47 47 47 46 44 40 33 39 40 40 32 26 36 37 40 39 37 35 36 35 34 32 31 35 39 35 29 28 36 36 34 33 31 35 33 36 35 36 35 34 35 33 33
46 47 46 47 46 41 34 31 39 43 41 32 28 29 37 39 36 35 34 36 35 34 33 32 34 35 36 32 28 34 35 36 34 33 33 31 31 30 32 35 33 32 33 33
46 46 46 46 46 44 37 41 43 43 37 35 28 27 31 38 31 31 34 32 34 35 34 34 33 34 34 28 32 32 33 35 32 33 33 31 31 31 32 33 35 33 31 30
46 46 46 41 39 34 38 47 45 41 36 30 29 26 23 38 35 35 33 35 28 35 31 31 33 31 28 30 30 30 30 28 28 33 32 32 29 30 31 30 30 31 30 30
46 41 33 30 35 44 45 38 34 33 33 33 29 31 26 34 33 32 32 33 30 27 32 35 30 30 29 29 29 29 29 28 29 28 26 27 26 26 27 27 28 28 28 28
36 32 32 39 44 39 34 30 30 30 28 31 33 31 29 35 30 31 33 30 30 25 29 29 28 25 25 27 26 28 29 28 27 28 27 27 25 24 25 25 25 26 27 26
37 37 41 39 36 32 29 27 30 28 28 30 30 32 32 33 38 32 32 30 29 23 32 28 23 22 25 26 25 27 27 27 26 25 24 24 23 22 23 21 21 21 22 23
40 36 32 32 31 25 20 21 26 26 29 28 31 30 31 33 36 32 31 28 25 33 27 22 21 24 25 25 26 25 26 25 23 22 22 21 19 18 17 16 17 19 18 18
32 31 24 24 22 25 25 28 29 30 31 30 32 32 33 33 32 32 28 30 30 24 19 17 21 23 24 25 24 23 20 19 19 16 17 15 15 14 13 13 15 14 15 14
30 29 20 23 25 27 28 31 30 29 32 32 32 33 33 31 30 31 29 26 18 18 16 19 23 24 24 22 22 21 19 17 15 13 11 10 11 11 10 11 12 13 11 12
27 23 23 26 24 23 23 25 26 28 28 31 31 31 28 27 28 26 20 20 17 16 20 22 23 22 22 21 20 18 16 15 13 13 13 11 9 9 9 9 10 9 10 10
24 16 20 17 18 17 20 21 21 26 26 30 30 27 23 26 21 17 17 14 18 20 20 21 21 20 18 18 20 18 18 14 13 12 12 11 11 12 11 9 10 11 11 10

GFSNW_sfc_temp_114.txt.gz
Temp
51 51 50 50 50 48 49 47 36 50 51 41 43 40 38 39 41 45 41 41 39 36 37 35 36 33 40 49 47 37 36 32 33 41 50 55 57 51 52 43 42 47 48 49
51 50 50 50 50 49 49 44 43 50 49 32 37 39 38 40 40 41 40 38 41 42 38 32 40 41 48 49 44 38 40 33 32 37 44 43 40 53 54 54 53 46 41 48
51 50 50 50 50 48 51 42 32 41 40 43 34 30 34 35 43 41 42 41 42 40 38 43 37 40 45 48 45 45 44 33 29 25 30 41 33 35 47 50 44 46 49 53
50 50 50 50 50 49 50 41 36 41 31 33 38 37 36 34 32 41 43 40 40 36 32 37 38 41 42 46 46 45 42 31 34 36 40 45 41 39 38 41 48 44 50 53
50 50 50 50 50 48 46 34 38 41 39 38 36 35 36 35 36 36 37 37 40 40 36 37 34 39 39 37 42 40 43 32 38 34 38 44 41 42 44 44 44 50 52 53
50 50 50 50 49 49 45 45 45 43 36 37 35 37 37 36 37 40 42 40 38 37 41 44 44 45 44 43 38 35 36 36 34 32 41 39 36 41 45 46 49 49 45 54
50 50 49 49 49 49 48 47 45 37 33 38 37 36 38 37 38 35 41 42 39 45 50 48 50 50 48 46 44 43 36 36 36 32 38 23 41 50 50 47 49 52 53 54
50 49 49 49 49 48 49 48 45 40 33 39 38 37 38 40 40 39 40 43 47 49 44 39 37 40 41 43 45 45 42 38 34 29 32 39 40 45 43 42 45 50 52 52
49 49 49 49 49 48 49 49 50 45 36 37 41 38 39 36 38 38 40 47 49 45 41 34 29 28 34 35 39 45 42 41 35 34 26 26 39 49 53 50 35 50 53 51
49 49 48 49 49 48 49 49 50 44 35 43 41 38 38 42 39 37 40 40 41 44 36 31 31 28 38 30 30 33 35 36 32 33 30 37 45 49 55 35 36 48 51 46
49 49 48 49 48 48 47 47 50 44 39 43 42 43 40 41 41 35 40 38 38 39 32 33 34 32 36 32 34 32 31 31 32 34 29 27 49 49 39 45 50 46 47 47
48 48 48 48 48 48 48 43 49 47 37 43 45 47 49 48 47 42 41 38 35 41 36 39 38 33 35 34 27 36 30 31 31 36 39 48 50 44 46 49 47 47 50 52
48 48 48 48 48 48 48 46 44 40 35 37 40 41 49 51 50 52 37 40 43 37 39 35 34 27 38 30 34 31 37 42 32 33 38 37 37 42 46 46 45 46 50 49
48 47 47 48 48 48 47 46 46 42 37 31 41 50 45 52 52 49 48 47 47 45 40 35 35 32 42 35 35 31 34 34 31 34 37 35 34 36 39 41 41 42 47 47
47 47 47 48 48 48 47 47 47 49 41 31 38 46 51 51 50 47 47 45 43 38 34 33 32 41 39 39 37 32 36 31 29 29 33 33 32 35 37 35 34 37 42 40
47 47 47 48 47 47 43 35 46 49 47 36 31 47 45 47 48 45 44 44 41 37 34 33 39 45 39 32 33 35 36 35 33 30 35 33 34 35 36 34 32 32 32 35
47 47 47 47 46 45 41 40 43 48 47 33 30 37 44 45 44 43 40 41 37 37 36 35 39 42 40 36 32 40 36 34 34 33 33 32 31 31 33 36 35 35 38 37
46 47 47 46 46 45 41 43 44 45 40 38 29 34 39 45 36 35 40 35 35 36 39 39 38 42 40 33 38 36 35 34 34 36 36 31 32 33 32 36 37 35 36 35
47 47 46 43 39 36 44 46 44 43 37 32 32 31 31 41 37 39 36 38 30 41 34 36 39 36 32 34 34 33 32 30 31 35 35 35 33 34 34 33 34 34 34 33
46 44 36 32 38 46 46 39 35 34 34 34 30 43 34 40 36 34 35 35 34 29 36 42 34 35 31 31 32 32 32 32 34 31 29 29 29 30 30 30 30 31 32 32
41 33 34 44 45 41 36 31 31 31 29 33 37 40 36 43 34 32 37 34 33 29 34 33 33 30 28 31 31 33 33 33 32 32 30 31 28 28 29 29 29 29 29 28
41 41 41 39 36 33 30 30 32 31 32 38 33 34 38 42 44 36 35 31 33 27 39 31 28 25 29 30 30 31 32 31 30 30 28 28 26 26 26 25 24 24 24 25
43 37 33 32 32 27 26 24 29 31 36 36 34 31 37 39 39 34 33 29 30 39 29 28 25 27 28 29 30 29 30 29 28 27 26 25 23 21 21 20 21 22 22 22
34 30 28 29 27 31 32 34 37 35 37 36 37 34 34 36 33 34 29 32 32 28 25 22 26 26 27 28 28 26 23 22 21 20 20 19 19 18 17 17 19 19 19 19
31 32 28 28 31 32 32 34 34 33 37 38 36 35 36 33 31 33 33 29 24 25 23 23 26 27 27 25 25 24 22 20 19 19 17 15 16 16 15 16 17 18 17 18
29 28 28 30 30 29 30 31 30 33 34 37 35 33 30 31 32 29 24 25 23 23 25 27 28 25 25 24 23 22 21 21 20 19 19 16 14 14 15 16 16 16 16 16
26 25 27 27 29 28 27 29 28 31 31 32 34 29 27 32 28 23 26 24 25 25 25 28 26 25 23 23 23 22 21 20 20 18 18 17 18 18 18 16 16 18 17 17

GFSNW_sfc_temp_117.txt.gz
Temp
51 51 51 51 51 50 46 55 42 56 58 47 51 47 45 41 47 49 46 46 44 42 42 40 41 38 45 53 51 41 39 33 32 36 47 51 53 53 53 43 42 48 48 50
51 51 51 51 50 50 57 50 52 56 53 36 43 45 44 46 46 46 45 44 46 47 43 37 43 45 53 53 49 42 41 35 27 38 40 44 43 53 54 53 54 46 41 47
51 51 51 51 50 50 51 51 37 48 49 52 43 38 41 41 48 46 47 46 48 45 42 46 42 44 51 52 51 46 46 36 30 25 30 37 31 40 52 51 44 47 49 54
51 51 51 51 50 50 50 47 41 49 34 38 44 44 43 39 39 46 48 45 45 42 37 40 41 46 47 50 49 48 45 32 37 40 44 43 42 40 45 45 46 44 51 55
51 51 51 50 50 50 50 38 46 47 49 46 43 39 41 40 43 42 42 42 45 46 39 41 39 44 43 41 48 44 46 35 40 37 44 44 41 41 42 47 49 52 54 51
50 50 50 50 50 49 50 53 54 50 43 43 41 42 42 41 44 45 47 45 43 41 44 49 49 49 48 47 44 40 39 38 37 33 43 38 33 41 44 45 47 51 46 56
50 50 50 50 50 49 54 54 54 44 38 44 42 42 42 42 44 41 46 47 42 48 55 52 52 52 52 53 51 50 40 37 39 33 38 24 40 53 49 48 51 51 49 48
49 50 50 49 49 49 51 55 51 46 37 45 43 42 42 44 45 42 44 48 51 53 48 40 39 42 45 47 50 50 49 40 34 32 33 38 41 48 47 45 46 52 52 55
48 49 50 49 49 50 51 52 54 49 39 42 47 43 44 41 43 44 45 51 54 50 43 38 30 30 36 36 41 50 48 45 37 36 30 26 41 50 56 54 38 48 48 50
49 49 49 49 49 49 50 50 53 48 37 47 46 42 43 48 45 42 45 45 45 49 38 33 33 32 39 31 32 35 37 38 34 36 33 40 48 51 54 34 33 46 40 47
49 49 49 49 49 49 50 48 53 48 41 48 48 49 44 46 45 40 45 42 43 41 35 35 36 35 39 36 38 35 33 31 31 36 33 29 47 47 34 39 46 42 42 46
49 49 49 49 49 49 49 44 52 54 41 43 50 52 54 52 51 45 46 42 39 44 39 39 39 34 37 36 30 39 30 34 31 34 35 41 41 38 44 44 41 40 44 50
49 48 49 49 49 49 49 47 49 47 42 43 46 45 53 56 54 56 41 45 46 43 45 39 38 31 40 31 33 34 40 43 35 37 40 36 35 36 39 40 39 40 45 50
48 48 48 48 48 49 48 45 50 49 43 34 43 56 51 57 57 53 52 50 50 49 45 39 37 35 45 36 40 35 36 36 33 37 41 39 39 34 35 37 37 38 38 49
48 48 48 48 48 48 49 49 50 54 45 34 41 50 55 56 54 52 52 49 46 42 37 35 34 44 42 44 41 33 37 31 30 29 33 32 35 35 36 34 34 35 37 41
47 47 48 48 48 48 44 35 48 52 51 39 33 50 49 52 53 50 48 48 44 41 38 36 40 47 41 34 34 35 36 35 34 31 34 35 34 37 36 35 34 35 34 35
47 47 47 48 48 48 42 41 47 52 50 37 33 39 48 50 50 47 44 45 41 40 37 36 40 43 42 37 33 39 37 37 35 37 36 33 33 31 34 36 37 37 37 39
47 47 47 47 47 47 44 48 48 51 44 42 32 36 40 48 37 34 42 37 38 37 39 42 40 44 43 36 41 41 40 38 38 40 42 36 37 39 37 38 39 39 39 38
47 47 47 45 41 38 46 44 43 43 39 33 33 32 31 46 39 38 37 39 31 44 35 39 41 39 35 35 37 37 36 36 34 40 40 40 38 39 39 37 35 34 36 37
46 45 35 32 41 46 46 41 37 37 37 39 33 44 35 43 38 36 35 36 34 31 38 46 36 37 36 36 36 37 36 38 37 34 33 33 33 34 35 35 34 33 32 33
41 36 37 46 47 45 40 31 30 33 30 38 40 42 39 48 36 34 40 35 35 30 37 35 34 33 30 36 35 36 38 37 36 36 34 33 31 31 32 32 32 31 30 28
45 45 46 45 41 33 29 30 34 32 34 41 36 38 43 44 48 38 39 33 36 29 43 34 31 27 32 34 33 35 35 35 34 34 32 31 28 26 28 27 25 25 25 25
47 43 34 33 32 26 25 25 30 32 40 41 39 33 40 42 43 36 33 28 31 42 31 30 28 30 31 32 33 32 33 32 30 30 30 28 26 24 22 21 23 24 24 23
39 32 26 29 28 30 35 36 38 40 42 41 37 35 37 40 34 36 30 33 32 29 28 26 29 28 29 31 31 29 25 24 24 22 23 21 22 21 21 20 22 21 21 22
33 31 28 30 33 34 33 36 37 37 41 40 38 40 39 35 32 33 34 29 27 27 25 25 27 28 29 28 28 26 24 22 22 22 19 18 18 20 19 20 21 21 20 21
32 31 29 33 32 30 32 33 31 39 37 41 43 35 31 31 34 31 28 29 27 26 28 30 30 28 27 27 26 25 24 24 23 23 22 20 18 18 19 20 20 19 20 19
29 28 31 30 31 31 30 32 31 37 35 33 35 30 29 36 32 29 32 27 27 28 28 29 29 27 26 26 26 24 24 23 23 22 21 21 22 22 22 20 20 21 21 21

GFSNW_sfc_temp_123.txt.gz
Temp
51 51 51 51 51 50 46 41 33 49 50 35 37 33 46 46 48 50 47 45 43 39 40 36 36 34 40 48 45 37 37 28 25 31 42 48 43 38 34 27 27 31 34 33
51 51 51 50 50 50 42 39 38 48 46 29 31 43 47 48 47 47 46 43 46 45 39 32 39 40 48 49 46 37 37 26 21 28 36 41 36 40 42 39 36 30 28 35
51 51 51 50 50 50 42 38 32 38 40 42 37 35 40 41 48 46 48 45 45 41 37 42 37 39 46 47 46 47 43 30 27 20 25 34 30 37 42 39 29 34 36 40
51 51 51 50 50 50 42 38 35 42 29 32 36 38 43 40 39 45 46 42 42 38 32 36 36 39 41 44 47 42 38 24 30 33 37 38 37 39 35 32 36 33 38 38
51 51 51 50 50 50 40 34 35 41 39 42 37 37 38 39 43 43 41 39 42 41 34 36 31 36 35 34 40 36 38 27 34 30 37 39 37 35 35 35 35 39 40 38
50 50 50 50 50 49 39 43 46 40 39 37 33 34 40 41 44 44 46 42 39 36 39 41 40 40 40 39 36 33 33 31 29 25 35 35 29 32 33 32 35 35 31 38
50 50 50 50 50 48 42 43 42 35 30 34 37 43 44 43 43 38 44 43 38 43 48 45 43 42 42 41 41 43 34 32 32 27 31 20 33 44 41 36 34 34 35 38
50 50 49 50 49 50 42 43 39 36 28 37 40 42 42 42 42 39 40 44 46 45 41 31 29 30 33 39 41 39 39 33 27 25 25 34 31 35 35 33 32 37 34 36
50 50 49 49 49 50 43 42 43 38 28 32 43 37 41 33 31 34 40 47 47 44 33 26 23 21 29 30 36 45 45 38 28 28 24 21 27 36 40 46 28 36 35 36
49 49 49 49 49 50 44 41 45 38 28 37 41 33 34 40 36 32 36 41 39 42 25 23 23 23 36 25 26 28 28 28 26 26 25 28 32 37 42 26 26 35 33 37
49 49 49 49 49 50 44 41 44 39 32 36 42 43 37 37 36 29 36 34 33 30 24 24 23 24 30 29 33 30 26 24 22 27 24 19 34 36 27 31 36 35 33 37
49 49 49 49 49 49 48 37 46 46 36 35 43 44 45 44 42 36 36 34 35 37 28 30 28 25 25 28 20 33 26 28 25 28 27 34 35 33 35 35 34 34 35 37
49 48 48 48 49 49 47 39 42 40 34 34 35 37 45 50 47 47 32 35 40 36 37 26 26 22 27 20 23 26 35 38 28 30 31 33 33 36 36 36 34 35 37 38
48 48 48 48 49 49 48 39 41 39 36 23 33 50 44 51 49 46 44 41 42 40 36 27 25 24 35 24 30 24 30 31 27 30 35 35 35 34 35 36 35 34 36 36
48 48 48 49 49 49 45 41 42 43 35 28 31 43 48 51 48 45 44 41 37 33 29 25 24 32 31 31 30 22 32 26 21 20 32 31 34 34 34 35 35 34 34 35
48 47 48 48 48 48 39 30 41 44 41 30 23 40 43 47 47 44 41 40 37 34 30 27 32 39 31 22 25 33 34 33 31 29 36 36 35 34 35 34 34 35 34 34
47 48 48 48 48 42 35 34 39 47 42 28 23 27 40 47 44 40 39 39 36 34 31 28 30 32 33 25 24 35 36 36 35 35 33 29 31 26 31 35 35 36 36 35
45 46 47 47 48 46 39 40 47 45 37 34 21 26 33 42 30 29 36 32 34 32 30 31 30 33 31 25 35 37 39 38 39 39 41 35 34 36 34 35 35 33 31 31
45 45 46 42 39 35 39 47 46 42 36 24 24 21 20 39 31 34 32 34 27 33 27 29 30 28 26 34 36 35 36 35 34 38 36 36 33 34 34 31 30 28 28 28
44 41 34 30 35 46 45 39 33 33 30 31 25 31 26 35 30 24 28 28 25 21 30 36 27 26 33 35 35 36 36 35 34 30 27 28 27 27 29 27 27 27 26 26
38 32 33 38 47 38 35 27 24 23 25 30 30 31 28 38 27 25 28 25 27 24 29 30 28 26 28 34 34 35 34 33 32 31 27 26 25 24 25 24 24 25 24 23
39 39 42 38 36 29 24 22 24 26 26 30 26 28 33 35 38 28 28 27 27 22 34 29 23 25 29 31 30 30 30 30 28 28 26 24 23 23 23 22 21 22 21 19
43 38 32 30 26 14 17 14 21 19 27 30 29 27 32 34 36 28 26 25 21 31 23 21 21 26 28 28 27 26 27 26 25 24 24 24 22 21 21 19 20 20 20 19
33 26 22 21 16 21 24 24 25 30 30 33 32 28 29 29 27 29 27 26 26 24 24 19 24 25 26 26 25 23 21 22 21 19 20 18 20 18 18 17 19 19 18 18
28 28 15 20 27 29 29 29 31 33 34 35 30 30 32 26 24 31 28 19 21 24 20 21 24 26 26 25 24 22 21 18 16 12 10 9 11 14 12 13 14 17 15 14
28 28 22 28 28 27 32 30 31 33 33 32 32 29 28 23 26 26 26 22 21 21 22 23 25 24 24 22 21 19 15 17 12 12 15 11 8 8 10 9 10 9 9 8
29 24 26 28 29 28 28 30 30 30 29 27 30 26 26 28 25 24 24 21 21 23 23 24 22 20 19 16 18 16 19 14 13 12 12 11 14 12 12 9 9 10 10 11

GFSNW_sfc_temp_129.txt.gz
Temp
49 49 49 50 50 50 47 41 32 45 47 35 33 31 40 48 46 49 45 43 41 37 37 34 33 33 37 43 40 32 32 27 23 29 38 39 36 35 33 24 23 28 26 27
49 48 48 49 49 49 40 37 36 45 45 28 30 39 43 46 45 45 44 42 44 43 37 32 36 37 41 43 39 34 34 24 19 26 31 36 31 35 37 33 31 26 25 28
49 48 48 48 49 49 43 37 29 35 38 38 36 36 38 39 47 44 46 42 43 39 36 39 34 35 40 41 39 45 39 28 20 14 22 28 24 31 35 31 25 26 29 28
49 49 49 49 50 50 42 36 32 37 26 31 36 38 41 38 37 44 45 41 40 36 32 33 32 34 35 38 42 37 34 21 25 28 31 31 30 32 31 28 30 25 27 29
50 50 49 49 50 49 39 33 34 38 34 37 36 36 37 38 40 41 38 37 38 38 32 33 30 32 32 31 34 32 32 25 29 27 32 32 30 32 31 33 32 31 31 30
50 49 49 49 49 47 36 39 41 39 36 32 33 34 39 40 41 40 43 41 36 34 36 38 38 37 36 36 32 30 30 27 26 23 30 30 25 26 30 30 33 29 25 30
50 49 49 49 49 46 40 38 39 34 29 33 34 40 41 40 40 36 40 40 36 40 44 40 37 34 34 33 33 36 30 28 27 22 27 13 28 38 36 31 32 32 32 32
50 49 49 49 49 49 40 39 39 35 28 34 37 39 38 39 40 38 39 40 43 42 38 30 28 28 31 34 36 32 34 29 22 22 23 28 29 34 30 28 28 32 31 32
49 49 49 49 49 49 41 39 41 38 32 31 39 36 38 33 33 34 37 42 40 38 31 26 23 19 28 28 31 38 35 32 26 24 20 13 25 35 35 35 23 31 32 31
49 49 49 49 49 49 42 39 41 38 30 35 38 33 34 37 34 30 33 35 35 36 23 23 22 22 31 23 25 27 26 26 23 22 22 22 31 32 36 23 21 32 32 33
49 49 49 49 49 49 43 38 41 38 32 35 40 41 35 35 33 29 33 31 32 27 23 24 21 22 28 26 29 28 24 21 17 21 19 17 32 34 26 29 34 33 33 35
48 48 48 49 49 48 46 37 43 43 35 36 40 42 43 42 40 33 32 32 32 31 26 25 26 23 21 26 18 30 20 24 21 23 22 31 33 33 36 36 32 33 33 35
48 48 49 49 49 48 45 38 39 37 32 33 36 36 42 46 44 42 32 32 36 32 31 25 24 21 24 18 21 21 29 33 24 27 29 30 32 37 35 36 34 35 36 36
48 48 48 48 49 48 45 38 38 37 32 25 33 45 40 46 45 43 41 38 37 35 32 24 22 23 30 22 26 21 25 27 24 27 30 33 34 34 32 34 37 36 36 35
48 48 48 48 48 47 41 38 39 40 34 26 30 38 43 44 43 41 39 37 33 30 27 22 23 29 28 28 27 18 27 23 20 20 29 29 32 35 33 32 32 35 32 32
48 48 48 48 47 45 36 29 38 41 38 29 23 34 38 41 40 39 37 35 31 29 28 24 29 32 29 20 22 30 34 32 29 27 34 34 35 32 32 31 33 33 29 29
48 48 48 47 47 38 32 31 37 43 38 26 21 27 35 40 38 35 33 34 32 31 28 26 27 29 30 22 22 31 32 33 32 32 32 29 27 23 29 31 32 32 31 30
46 47 47 47 47 43 36 38 45 41 34 30 19 24 29 37 29 30 32 30 32 30 29 28 27 29 28 23 30 32 33 34 34 34 35 29 28 29 28 29 30 28 28 27
47 47 47 40 35 34 38 45 43 38 33 23 21 21 19 37 30 31 30 31 24 29 24 26 28 26 24 29 31 31 37 35 31 31 30 30 29 28 27 27 26 26 26 26
45 41 33 29 32 45 44 36 29 26 27 29 22 26 20 34 26 24 21 24 22 17 25 29 24 25 29 29 30 30 29 32 32 29 27 27 25 26 25 24 24 25 24 25
36 31 30 33 45 34 27 25 19 19 21 25 27 27 25 34 25 23 23 23 25 20 25 24 25 21 26 27 27 29 29 28 27 27 25 25 25 24 24 23 24 23 22 21
38 39 41 39 34 27 19 14 21 24 23 25 23 24 28 32 35 28 27 23 26 20 30 27 20 20 23 25 25 26 27 27 26 26 24 24 23 23 22 21 21 19 19 18
41 36 30 27 24 18 14 15 21 19 24 24 24 20 26 30 32 26 23 22 21 27 21 17 17 22 24 24 24 24 26 25 24 23 23 22 20 20 19 17 16 19 17 17
31 27 22 16 19 18 20 21 22 25 23 25 27 23 25 25 27 30 21 22 27 13 14 18 20 22 24 24 24 23 21 21 20 19 20 18 17 15 14 10 12 13 14 14
28 27 16 19 18 20 20 21 22 28 24 29 26 27 26 23 22 27 27 24 22 19 19 14 17 23 23 22 23 21 18 14 13 11 9 6 8 10 7 7 8 11 6 7
26 24 22 25 25 26 29 29 28 32 30 27 28 29 23 25 23 26 24 19 12 17 18 21 24 22 22 20 19 17 15 14 11 10 9 6 4 5 6 2 3 1 2 3
26 24 25 25 13 22 19 27 30 32 27 22 29 21 23 25 21 25 25 15 13 20 23 17 19 18 17 16 17 15 14 10 8 7 8 7 7 5 9 8 5 3 3 2

GFSNW_sfc_temp_132.txt.gz
Temp
51 50 50 49 48 48 46 39 31 43 47 36 33 29 38 46 44 47 44 43 40 36 37 34 33 32 36 43 40 32 32 27 23 27 35 37 33 31 30 20 18 27 25 26
50 49 48 48 47 49 42 35 35 43 43 28 31 36 41 44 43 43 42 40 43 41 37 32 36 36 41 41 38 34 34 25 17 24 30 33 29 32 34 32 29 24 21 27
48 47 47 46 48 47 42 36 30 34 37 36 37 34 36 37 45 44 44 41 42 38 35 38 34 35 39 39 39 44 39 27 17 11 20 26 23 29 31 29 23 25 27 27
46 46 46 47 48 47 41 36 31 35 27 27 35 37 39 37 36 43 44 40 39 36 32 33 32 35 34 38 43 35 33 21 23 27 29 28 29 28 29 20 28 25 26 28
46 46 47 48 47 48 39 33 34 36 37 37 36 37 34 37 37 39 37 37 39 38 34 35 31 32 34 32 33 32 31 24 27 25 30 29 28 30 29 29 30 29 30 30
47 47 48 48 48 46 38 38 41 38 35 33 33 32 38 39 40 40 43 40 36 35 36 39 39 39 37 35 32 30 29 27 25 22 29 28 21 27 27 23 31 29 23 29
48 48 48 49 48 47 40 39 39 34 28 33 34 39 40 39 39 36 40 41 37 40 43 41 39 36 34 33 30 34 28 27 27 23 26 12 26 35 34 29 30 30 31 32
49 48 49 48 48 48 40 39 39 36 27 34 37 38 37 38 41 37 38 41 42 43 39 32 30 28 30 32 32 29 33 28 21 19 22 27 26 31 28 26 25 31 29 32
48 48 49 48 49 49 41 38 40 38 33 30 38 35 38 35 32 34 36 41 41 39 33 28 24 20 28 27 29 35 32 31 28 24 20 11 25 33 34 33 21 31 32 31
48 48 48 49 49 49 42 38 40 39 31 35 37 33 34 36 34 31 35 37 36 36 26 25 23 22 30 24 25 27 26 27 23 22 20 23 29 32 34 23 20 32 32 32
48 48 48 49 49 48 42 38 40 38 33 34 39 40 35 35 35 32 34 32 32 29 25 25 22 23 28 26 29 28 25 21 16 21 19 16 30 31 27 27 33 33 33 34
48 48 48 48 49 48 46 36 41 42 36 35 39 41 43 42 40 34 32 33 32 32 27 26 27 24 22 25 19 29 19 24 21 23 22 30 31 30 34 33 33 33 33 35
48 48 48 48 48 48 45 37 37 38 33 34 37 37 43 46 43 43 33 32 36 31 32 26 25 23 25 18 21 21 29 31 24 28 28 29 31 33 33 32 32 35 35 35
48 48 48 48 48 48 45 38 38 37 33 28 33 45 40 44 44 42 41 37 36 34 32 26 23 24 30 22 25 20 24 27 23 27 30 30 31 31 31 31 34 36 34 34
48 48 48 48 47 47 43 39 39 40 36 28 31 38 41 43 42 40 40 37 33 30 27 24 23 28 28 27 27 17 26 22 19 18 28 28 29 31 32 30 33 33 32 31
48 48 48 48 47 45 38 31 39 41 38 30 25 35 37 39 39 37 36 34 31 29 27 24 28 32 28 20 22 30 28 30 26 25 32 30 31 31 30 29 32 31 26 27
47 48 47 47 46 39 33 32 38 43 38 28 25 29 34 38 37 33 32 32 30 30 27 26 27 29 29 21 21 30 32 31 30 31 33 28 27 23 28 30 30 30 29 28
47 47 47 47 46 43 38 40 44 41 33 31 23 27 29 36 27 28 30 29 29 29 28 27 27 29 27 23 29 30 31 31 32 31 33 29 27 29 27 28 28 27 26 26
46 46 46 39 35 33 38 45 42 37 33 24 21 21 21 35 29 29 29 29 20 28 24 29 29 26 23 29 29 29 33 34 30 31 31 29 28 27 27 26 26 25 24 25
46 40 32 24 34 45 43 34 30 28 27 29 21 26 26 31 28 24 24 26 23 16 25 29 24 25 26 27 26 28 30 32 33 29 26 26 25 26 25 24 25 24 23 24
36 31 26 34 44 34 28 18 20 21 23 26 26 27 28 35 23 21 22 22 25 20 24 23 23 20 25 28 27 28 28 28 26 26 25 23 25 24 24 23 24 22 22 20
36 38 40 37 30 23 20 14 22 24 24 25 23 25 28 33 35 25 26 25 25 19 29 23 16 17 23 25 25 25 27 26 25 25 23 24 24 23 22 21 20 18 18 18
40 36 30 26 21 13 13 11 18 19 23 23 23 19 25 32 33 27 25 23 19 27 21 16 17 21 24 24 24 24 25 25 24 23 22 21 19 18 18 16 15 17 15 15
31 26 16 18 18 17 19 21 21 23 23 24 25 22 24 27 24 21 22 21 27 16 11 13 15 21 23 23 23 22 19 19 19 18 19 17 16 13 11 8 9 10 12 10
28 25 15 15 17 19 16 19 22 27 23 27 24 25 25 22 19 24 24 23 21 19 13 12 12 22 22 20 21 18 14 11 10 7 7 5 7 9 6 5 6 9 4 5
29 26 22 23 24 23 15 21 25 33 29 26 27 25 20 19 21 23 14 16 13 14 13 16 23 21 20 19 18 15 13 12 9 6 7 4 3 5 5 0 1 -1 -0 0
26 23 25 19 18 22 19 21 30 32 24 18 21 18 20 22 18 21 23 16 15 17 23 24 18 18 16 15 16 14 13 11 9 6 7 5 5 3 7 7 5 2 3 -0

GFSNW_sfc_temp_135.txt.gz
Temp
54 54 54 54 52 50 49 38 31 40 46 32 33 30 39 44 45 48 45 44 41 39 39 36 35 34 39 45 43 37 37 33 29 33 40 42 39 36 34 26 22 30 29 32
54 53 54 52 50 52 44 35 34 41 43 28 29 36 41 43 42 43 43 41 43 43 39 34 37 37 42 44 41 37 38 31 25 29 35 38 35 37 37 34 31 27 24 32
54 53 51 49 51 54 43 35 29 33 36 36 34 35 37 37 45 43 44 42 43 40 37 40 35 35 40 43 43 44 42 32 27 25 29 34 29 33 35 31 25 29 31 31
50 49 49 50 52 53 41 35 33 37 29 31 37 39 39 37 36 43 44 41 41 38 34 35 33 36 36 40 43 39 39 29 29 32 34 33 33 32 32 26 29 26 31 31
47 48 48 47 48 46 39 32 32 35 37 35 37 36 35 39 37 40 38 39 40 40 36 38 32 36 36 36 37 37 36 30 31 28 34 33 30 32 32 31 32 33 33 33
46 46 46 47 46 44 37 38 43 39 34 32 32 33 37 39 40 41 44 41 38 36 38 40 40 41 41 40 37 34 34 31 28 26 32 31 25 30 31 29 32 30 25 30
44 45 45 46 46 44 41 40 41 36 29 33 34 39 41 40 41 36 41 43 39 40 44 43 42 39 38 38 36 38 32 31 31 26 30 19 31 38 37 32 31 32 31 31
45 46 46 47 47 47 41 41 42 39 32 37 38 40 37 39 41 38 39 40 44 45 41 36 32 32 32 32 35 35 37 33 27 25 26 30 29 34 33 31 29 32 30 32
47 46 47 48 48 47 42 39 40 40 36 31 40 38 40 36 36 35 36 42 44 42 36 32 27 24 31 29 30 35 35 35 31 27 22 18 30 35 37 36 26 33 33 31
48 48 48 48 49 49 43 40 41 40 32 35 38 36 36 40 37 34 35 38 39 40 32 29 27 26 33 27 27 27 27 29 25 26 25 29 34 35 37 25 27 34 33 33
48 48 47 48 49 49 44 40 41 41 34 35 39 41 37 38 38 34 36 36 36 33 29 29 27 28 31 30 32 30 28 26 25 26 23 21 36 35 31 33 36 35 34 35
48 48 48 49 49 49 46 38 43 44 37 36 41 42 43 43 43 38 35 37 35 36 32 31 31 28 29 30 25 33 27 31 29 31 31 35 37 36 37 38 34 36 35 37
48 48 49 49 49 48 45 38 38 40 37 38 38 37 43 46 43 45 36 35 38 35 36 32 31 28 31 26 28 29 33 35 32 33 32 35 36 38 38 38 37 38 37 36
48 48 48 48 48 48 46 38 39 39 36 29 34 45 41 46 45 43 43 39 38 37 36 32 30 30 34 29 31 30 32 34 30 31 36 35 35 37 37 36 37 37 35 36
48 48 48 48 48 47 44 40 40 41 38 29 34 40 42 43 44 42 42 40 37 36 33 31 30 33 33 32 32 28 33 28 30 29 35 35 35 36 36 35 34 34 33 32
47 48 48 47 47 45 40 34 41 42 40 33 28 36 37 40 41 39 38 37 35 34 33 31 33 35 34 28 27 34 33 32 32 33 36 35 35 35 36 34 33 31 29 30
47 47 47 47 46 41 34 34 40 43 39 32 28 30 36 40 38 36 36 36 33 35 31 31 33 34 34 30 27 35 36 35 33 35 34 31 31 29 33 34 32 32 31 31
47 47 47 46 46 44 39 40 43 41 35 34 27 28 33 39 32 32 34 33 34 32 31 32 32 33 32 27 34 35 34 34 35 35 35 32 30 31 30 31 32 29 28 29
47 46 45 40 36 34 37 45 42 39 35 27 27 26 25 36 31 33 33 33 27 32 30 32 33 29 27 31 32 33 33 35 32 33 32 32 31 29 29 28 28 27 25 27
45 39 32 28 35 44 43 36 32 30 30 32 26 30 28 34 32 27 29 30 27 24 29 33 28 29 28 29 31 32 33 34 34 30 28 29 28 27 27 25 26 25 24 25
36 29 29 37 43 35 30 23 25 26 26 30 29 32 30 35 27 26 27 25 28 22 27 26 26 25 27 29 29 30 30 30 29 29 27 28 28 26 26 24 24 23 23 22
37 38 39 35 31 26 22 19 25 26 25 28 28 28 33 33 35 27 28 26 27 21 31 26 23 25 26 28 27 27 28 28 27 27 26 26 25 25 23 22 20 19 19 18
40 35 29 27 25 18 19 14 20 21 27 27 28 25 31 33 34 28 27 24 23 31 26 24 26 23 26 26 26 25 27 26 25 24 24 23 20 20 20 16 16 18 17 16
32 27 19 17 16 19 22 25 25 27 27 28 29 26 29 29 26 27 23 25 28 22 18 22 23 24 25 25 25 24 22 22 22 20 20 18 17 15 14 12 14 15 15 13
26 28 17 17 21 22 22 23 25 28 29 29 29 29 30 26 24 29 26 23 22 23 21 25 22 25 24 22 23 19 16 14 14 15 13 12 13 14 13 12 14 14 11 11
29 25 20 21 21 23 19 20 25 32 28 30 31 27 23 22 26 25 21 20 17 23 24 22 25 23 23 21 19 16 15 15 14 14 13 12 11 13 14 10 11 9 11 11
27 23 22 18 18 19 19 23 26 31 28 25 25 20 22 26 23 23 26 22 25 22 22 25 24 22 20 18 17 16 15 14 14 13 14 14 12 11 15 16 15 13 12 9

GFSNW_sfc_temp_138.txt.gz
Temp
51 52 52 52 51 52 50 42 34 43 46 32 33 33 39 45 49 54 50 49 46 47 48 44 44 41 47 54 52 45 45 42 37 40 46 48 47 42 40 33 31 37 35 37
50 50 51 50 50 52 46 38 34 44 44 30 31 39 39 45 43 48 49 46 50 53 46 40 45 45 49 53 51 45 45 40 31 34 40 44 42 44 44 40 38 33 30 40
49 49 50 50 51 52 49 35 28 32 36 40 40 36 38 40 46 44 47 45 49 46 46 48 42 41 45 51 51 46 47 38 34 34 37 43 35 40 43 37 31 37 39 41
49 50 51 53 53 52 50 38 34 41 29 32 41 43 42 39 37 43 44 42 46 45 39 41 40 42 43 47 45 46 45 34 36 40 42 41 41 39 39 32 35 29 39 40
50 53 52 52 51 53 43 35 37 45 44 41 39 37 36 38 38 39 38 43 46 47 41 43 38 43 44 42 44 44 43 35 39 35 41 41 38 39 38 37 38 41 42 41
45 46 48 50 51 50 39 44 54 49 40 37 39 38 39 39 41 41 46 46 43 43 44 53 53 53 52 49 44 42 39 38 36 33 39 37 30 35 36 33 39 36 30 33
45 46 46 46 46 46 46 52 55 45 33 40 41 41 40 41 43 36 44 48 43 43 52 52 51 50 48 48 46 47 39 39 38 34 35 23 36 46 46 40 37 39 36 34
45 46 46 47 47 48 44 46 45 42 34 40 38 40 41 42 43 40 41 43 48 52 51 43 38 38 38 39 43 43 45 41 33 30 32 35 34 39 40 38 36 40 34 35
45 46 46 46 46 46 43 41 44 44 35 34 41 36 38 35 36 36 39 48 52 51 46 41 33 29 37 32 33 42 41 41 36 33 27 24 38 42 44 44 32 41 37 36
46 47 47 48 48 47 46 42 48 42 34 36 43 38 39 46 45 40 41 44 45 51 41 36 35 33 42 31 30 29 32 34 31 32 30 34 42 43 44 30 32 41 36 36
46 46 48 49 48 48 52 45 47 45 37 37 45 48 44 48 48 41 44 43 43 43 38 38 36 35 38 37 39 34 32 31 29 33 29 26 44 41 35 40 43 42 40 39
46 47 48 49 49 49 49 44 50 52 42 39 46 47 49 54 57 48 44 47 45 47 43 41 39 34 37 37 30 39 31 39 36 37 38 44 46 44 45 44 42 42 41 41
48 48 48 49 49 51 51 48 49 49 42 42 44 41 48 53 55 58 46 47 46 43 46 42 40 34 42 32 35 36 39 42 39 38 39 43 44 45 45 45 44 44 44 42
48 48 48 48 48 49 51 47 46 51 46 34 36 50 46 54 56 54 55 47 47 47 50 42 39 36 42 37 39 38 40 41 35 38 43 42 43 44 44 43 43 43 40 41
48 48 48 48 48 50 51 50 47 50 48 35 37 46 48 53 53 51 52 51 49 49 43 39 37 42 42 42 42 36 42 34 35 35 42 42 42 44 44 41 40 40 39 38
47 48 47 47 47 48 54 42 52 51 54 41 31 43 44 48 50 48 46 48 47 47 43 41 43 42 43 36 37 41 42 40 38 37 43 42 42 43 43 39 35 35 32 34
47 47 47 47 48 47 42 41 46 46 52 39 34 35 43 46 47 46 46 47 44 46 42 40 42 42 45 39 36 41 43 42 40 41 38 34 37 32 38 37 35 35 36 36
47 47 46 47 48 49 44 45 46 49 46 45 33 30 37 46 40 38 45 41 44 41 41 42 40 41 43 35 41 42 43 43 42 42 42 37 34 36 35 37 37 35 34 34
46 46 46 48 44 41 44 45 46 50 46 35 35 32 28 44 39 41 42 44 32 43 37 39 41 38 34 39 41 41 42 41 40 39 38 38 38 37 36 35 34 33 32 32
46 46 39 33 41 44 46 46 41 39 40 42 34 41 31 40 39 33 36 39 35 31 37 42 37 39 37 38 41 42 41 42 41 36 33 36 34 34 33 32 32 31 30 30
43 36 34 44 44 46 39 32 33 36 32 39 38 40 34 42 35 32 38 33 35 30 33 33 32 33 33 37 37 38 39 39 38 39 37 37 36 34 32 30 28 28 28 26
44 44 44 44 39 35 30 27 32 33 30 36 34 35 39 37 44 36 35 30 32 26 37 30 29 32 34 35 34 35 37 36 35 36 34 33 32 32 30 28 25 23 22 21
48 43 34 36 32 28 28 23 27 28 34 35 36 32 37 39 38 31 31 27 28 37 29 30 36 32 34 33 34 34 35 34 33 31 31 29 27 26 25 21 22 23 21 22
39 34 26 28 27 29 31 33 34 34 36 38 39 35 37 34 31 30 26 29 32 26 24 28 34 31 31 33 33 31 29 28 27 26 26 23 21 19 19 19 20 21 20 19
33 35 26 27 28 30 30 32 34 36 41 40 38 38 40 33 28 32 30 26 25 29 30 35 33 32 31 28 29 26 23 21 21 21 19 18 19 19 18 19 21 20 18 18
34 32 27 28 30 28 30 31 31 39 39 42 42 34 31 29 33 28 27 27 26 32 36 34 34 30 29 28 26 23 22 22 21 20 20 19 18 20 20 19 19 18 19 18
30 27 32 30 32 31 31 34 35 40 38 32 35 28 26 33 30 28 34 30 34 33 32 34 32 29 28 25 23 20 21 21 22 21 21 21 21 19 21 20 20 22 19 18

GFSNW_sfc_temp_141.txt.gz
Temp
51 52 52 53 53 53 50 44 33 45 48 33 34 34 39 47 50 56 52 52 51 47 50 48 48 47 51 60 58 51 54 48 41 44 53 57 55 48 47 37 38 42 40 41
51 52 52 52 52 53 46 39 37 45 46 30 32 41 42 47 48 52 48 47 51 52 47 41 46 51 57 59 55 52 51 46 39 39 44 49 45 48 49 48 43 36 34 44
51 51 51 51 52 52 46 39 30 34 38 47 41 40 39 41 53 52 54 53 54 49 44 46 42 47 51 56 57 49 52 47 40 38 42 46 39 46 49 43 34 39 42 46
49 50 49 49 50 51 46 39 35 43 30 33 42 46 45 41 40 51 54 51 50 48 41 42 45 48 49 53 47 51 51 39 43 46 48 48 46 45 46 37 39 34 42 43
47 48 48 48 49 49 42 35 39 50 49 44 36 42 41 42 45 46 46 47 51 52 45 46 44 46 45 43 46 46 49 42 44 40 46 46 43 45 44 43 43 44 46 46
46 46 46 46 48 48 41 43 52 52 45 41 35 41 45 44 48 50 53 53 51 49 53 55 54 53 50 49 45 44 44 43 40 37 44 43 34 40 42 36 43 42 35 41
44 45 46 50 51 50 54 49 53 44 41 43 41 45 47 47 48 46 54 55 50 51 60 56 53 51 52 52 50 51 44 44 43 38 39 25 43 50 51 45 41 46 45 43
44 46 47 51 50 52 52 55 53 48 42 46 43 46 45 48 49 47 52 54 55 57 51 40 35 37 39 44 49 49 51 45 37 34 34 40 39 44 45 44 42 50 42 41
45 46 46 48 51 52 50 51 57 58 45 41 49 46 46 42 39 43 47 51 52 52 45 39 30 26 34 33 38 49 48 48 41 37 31 27 42 49 50 49 35 48 44 41
46 46 46 46 47 48 47 45 56 54 39 50 51 45 44 49 45 39 41 42 44 50 40 35 34 33 43 32 33 33 36 38 34 35 33 38 48 48 50 33 35 46 42 42
46 47 47 47 47 48 48 44 50 48 37 39 50 52 45 45 45 37 41 41 43 42 36 37 38 37 42 40 43 37 35 33 32 37 32 29 50 47 39 43 48 47 45 44
48 48 48 48 49 48 48 41 49 51 40 38 46 47 53 52 53 46 46 44 44 47 42 44 45 39 42 42 33 46 35 41 38 40 40 47 51 49 50 51 48 47 46 46
48 48 49 49 50 51 53 50 51 48 39 39 42 43 52 59 59 59 44 50 51 50 56 48 46 38 46 36 39 39 44 48 43 41 44 47 49 51 51 51 49 49 48 46
48 49 50 51 52 53 56 50 52 51 47 35 37 53 51 59 62 61 61 53 55 54 55 47 44 40 47 43 44 42 43 45 41 43 46 47 49 50 50 49 49 48 46 46
48 48 49 51 51 52 54 54 55 56 47 34 39 51 56 59 58 56 57 55 52 51 46 42 41 46 46 48 47 38 46 37 37 38 47 47 46 50 50 47 44 44 44 43
47 48 48 49 49 53 55 40 52 59 57 43 31 44 49 54 56 55 53 54 54 52 47 44 46 48 47 40 40 44 46 45 44 40 48 48 48 49 48 43 40 40 36 39
47 48 48 49 49 54 48 44 48 51 57 42 35 35 46 51 51 51 50 52 51 51 47 45 46 46 48 43 38 45 47 46 45 47 43 39 40 34 40 40 39 39 42 41
47 48 49 49 50 51 49 50 50 52 50 47 34 32 39 50 43 41 52 46 48 46 45 47 44 45 46 39 45 47 48 48 47 47 47 41 38 39 38 41 42 40 40 39
47 48 50 53 51 46 49 46 49 57 50 39 37 33 29 48 43 45 46 48 35 48 40 43 45 41 37 43 44 46 47 46 44 45 44 43 41 41 41 40 39 38 37 37
48 51 41 34 45 45 48 52 44 43 45 45 36 43 33 43 41 37 38 43 38 33 41 46 42 37 43 47 49 48 48 47 46 40 38 39 38 39 38 38 37 36 35 34
48 39 38 49 47 52 46 34 35 39 35 42 40 42 37 47 37 34 42 36 39 33 36 38 36 36 37 44 44 46 47 47 45 45 45 44 42 39 37 35 34 34 33 29
47 47 49 49 45 39 33 31 36 37 32 39 38 40 43 42 48 38 40 34 37 29 43 34 33 30 40 39 39 41 43 43 42 42 39 39 38 38 35 32 29 26 25 25
54 47 37 41 37 31 31 25 31 31 36 39 40 36 42 43 44 33 34 30 29 39 31 32 35 37 39 38 39 39 41 40 39 37 36 35 32 31 28 24 25 25 25 24
43 38 29 31 30 32 34 36 36 39 40 42 42 41 41 40 34 34 28 31 34 28 27 30 34 36 35 38 39 37 34 33 32 30 29 25 23 22 23 23 24 24 23 22
36 39 28 28 32 34 33 38 40 43 46 44 42 43 43 37 31 35 33 27 27 32 32 34 35 35 35 34 34 30 26 24 24 24 22 21 22 22 22 23 24 23 21 21
38 35 31 35 33 30 33 35 36 46 45 46 45 38 33 31 35 31 29 30 29 33 34 36 37 34 33 31 30 28 26 26 24 23 23 22 21 21 22 22 22 21 21 20
35 30 35 35 35 32 33 37 40 47 42 35 39 30 29 39 34 32 39 32 33 34 36 39 36 32 30 29 27 25 25 25 25 24 24 23 25 22 23 21 22 24 22 21

GFSNW_sfc_temp_144.txt.gz
Temp
52 52 52 52 52 52 50 46 34 48 48 34 34 34 42 49 51 55 52 53 51 48 51 51 51 49 55 61 62 52 54 46 42 45 55 57 55 48 48 37 38 42 40 40
51 51 51 52 52 52 47 38 38 46 48 30 33 42 44 48 49 50 48 48 52 53 49 44 47 53 61 60 57 51 52 42 34 40 46 50 46 51 51 49 45 37 35 41
51 51 51 51 51 52 48 38 31 36 39 46 41 39 41 41 51 50 52 51 54 50 47 50 43 47 55 57 57 51 53 43 37 35 41 46 39 46 51 46 36 38 41 45
50 50 50 50 51 51 47 39 34 40 29 33 43 45 45 41 40 50 52 47 49 47 42 45 44 49 49 51 49 48 47 36 40 47 50 49 45 45 47 38 41 35 42 42
49 49 50 50 50 51 42 34 35 45 44 44 38 43 42 43 45 47 45 45 49 52 45 46 43 46 44 43 46 46 49 38 43 39 47 48 44 47 47 47 46 45 45 43
48 49 50 50 50 49 40 42 47 46 43 43 36 38 44 45 50 51 53 51 48 49 52 56 56 54 52 49 43 39 40 39 38 33 44 44 35 41 42 35 46 45 36 43
47 47 47 48 48 48 43 43 45 40 34 43 41 43 46 47 49 47 51 54 50 56 62 58 55 53 49 48 48 48 40 40 40 34 39 26 43 53 52 47 45 47 47 43
46 46 47 47 48 48 42 45 42 44 36 44 45 45 45 47 50 50 50 55 59 60 51 42 37 37 38 41 47 46 50 42 36 31 32 40 42 46 46 45 43 49 46 43
45 45 45 46 47 47 44 43 51 46 41 41 51 46 47 43 44 45 48 48 60 56 48 38 30 27 34 33 40 50 48 45 37 34 28 24 42 50 54 52 35 49 46 43
45 46 46 45 47 47 45 42 51 47 40 50 52 45 45 51 48 40 43 44 48 54 41 35 30 30 41 31 32 34 35 35 32 32 31 38 47 49 52 33 34 45 43 44
46 46 45 48 50 51 45 43 50 50 43 50 54 57 51 50 48 38 41 43 41 39 33 34 35 35 39 36 39 35 32 30 30 34 30 28 50 47 39 42 47 45 44 44
45 45 46 48 50 51 52 44 51 53 44 39 48 50 56 60 57 51 47 44 41 42 38 40 42 37 38 37 30 43 31 38 36 39 39 47 51 48 51 52 47 47 46 44
46 45 46 47 48 50 50 44 46 45 38 36 38 40 50 57 58 57 41 43 48 46 49 43 41 33 41 30 34 38 45 50 40 41 45 48 49 51 51 52 49 49 49 46
47 46 46 47 48 49 50 45 47 46 42 33 34 49 47 55 56 52 52 50 52 51 48 42 40 37 47 39 38 40 43 46 41 42 46 47 48 49 49 49 49 46 48 47
49 48 49 50 49 50 48 48 49 52 45 34 35 46 51 54 52 50 52 51 48 47 44 42 40 47 44 45 44 37 46 37 38 36 45 46 46 49 51 47 45 46 45 43
49 49 51 51 52 53 51 38 50 55 53 42 32 38 46 50 51 47 50 52 51 51 47 43 45 49 45 39 37 44 44 45 46 41 48 47 47 49 48 43 42 40 37 40
48 49 49 50 49 48 44 40 47 53 56 40 33 32 43 51 50 50 50 53 50 49 46 44 44 46 46 42 35 44 46 46 46 47 43 35 40 33 41 41 40 41 44 42
49 50 50 50 51 51 48 49 49 51 50 46 33 31 35 50 42 41 50 45 46 46 44 47 43 46 46 37 44 46 47 46 45 46 46 38 39 39 39 42 44 42 41 40
49 50 51 53 51 46 48 47 49 56 50 38 37 33 29 49 43 45 45 46 35 47 41 43 45 41 36 42 44 45 46 45 44 44 42 42 41 40 42 42 41 39 38 37
50 52 42 34 46 47 48 51 43 44 46 46 37 43 33 43 41 38 37 42 37 33 40 47 38 36 46 48 49 49 48 46 46 41 39 40 39 40 40 39 38 36 35 33
49 41 40 51 50 52 45 34 36 40 36 40 42 42 37 47 36 35 42 36 38 32 35 37 35 30 38 46 46 48 48 48 47 47 45 45 42 38 36 35 34 33 30 27
47 48 51 50 46 41 34 32 37 38 32 38 38 40 42 43 47 37 39 34 36 29 42 35 31 33 41 43 43 45 45 45 44 43 41 40 40 38 35 31 27 25 25 24
53 47 39 40 38 32 32 25 31 30 37 38 39 36 40 42 41 35 35 31 30 41 31 31 30 36 39 39 41 41 43 41 39 38 37 34 32 30 27 23 24 25 24 24
42 37 29 32 30 31 33 36 36 39 40 40 41 39 38 39 34 35 29 32 34 29 28 29 32 37 37 39 40 38 35 34 32 30 28 25 23 22 22 23 23 23 22 20
36 37 28 27 31 34 36 40 39 42 44 43 41 41 41 36 32 36 32 28 27 32 31 32 35 36 37 35 33 28 25 23 23 23 21 21 21 22 22 23 23 22 19 18
37 36 31 34 33 32 34 36 36 45 44 45 44 38 32 32 34 32 31 31 30 32 32 35 36 36 35 31 29 27 26 25 24 22 22 21 20 20 21 21 20 19 19 17
34 30 32 35 33 33 34 38 40 46 41 34 37 31 31 39 34 33 38 30 31 33 35 37 36 33 31 30 28 27 25 24 23 23 22 22 23 21 20 19 21 22 21 18